| time (UTC) | temp F | wind direction | speed knots | gust knots | rain 1hr in | rain 24hr in | rain mn in | humidity % | barometer mb |
| 20260508010002 | 74 | 351 | 2.6 | 9.6 | 0.00 | 0.00 | 0.00 | 75 | 1011.7 |
| 20260508005902 | 74 | 0 | 3.5 | 9.6 | 0.00 | 0.00 | 0.00 | 75 | 1011.7 |
| 20260508005801 | 74 | 13 | 4.3 | 9.6 | 0.00 | 0.00 | 0.00 | 75 | 1011.7 |
| 20260508005702 | 74 | 13 | 4.3 | 9.6 | 0.00 | 0.00 | 0.00 | 75 | 1011.7 |
| 20260508005602 | 74 | 18 | 3.5 | 6.1 | 0.00 | 0.00 | 0.00 | 75 | 1011.6 |
| 20260508005503 | 74 | 11 | 2.6 | 6.1 | 0.00 | 0.00 | 0.00 | 75 | 1011.6 |
| 20260508005402 | 74 | 17 | 3.5 | 6.1 | 0.00 | 0.00 | 0.00 | 74 | 1011.5 |
| 20260508005305 | 74 | 10 | 4.3 | 6.1 | 0.00 | 0.00 | 0.00 | 74 | 1011.5 |
| 20260508005202 | 74 | 11 | 4.3 | 6.1 | 0.00 | 0.00 | 0.00 | 74 | 1011.5 |
| 20260508005104 | 74 | 17 | 3.5 | 6.1 | 0.00 | 0.00 | 0.00 | 74 | 1011.6 |
| 20260508005004 | 74 | 0 | 3.5 | 6.1 | 0.00 | 0.00 | 0.00 | 74 | 1011.5 |
| 20260508004903 | 74 | 0 | 4.3 | 6.1 | 0.00 | 0.00 | 0.00 | 74 | 1011.5 |
| 20260508004802 | 74 | 13 | 4.3 | 6.1 | 0.00 | 0.00 | 0.00 | 74 | 1011.6 |
| 20260508004701 | 75 | 3 | 4.3 | 6.1 | 0.00 | 0.00 | 0.00 | 74 | 1011.7 |
| 20260508004602 | 74 | 0 | 4.3 | 6.1 | 0.00 | 0.00 | 0.00 | 74 | 1011.6 |
| 20260508004502 | 75 | 13 | 3.5 | 6.1 | 0.00 | 0.00 | 0.00 | 75 | 1011.6 |
| 20260508004403 | 74 | 10 | 3.5 | 6.1 | 0.00 | 0.00 | 0.00 | 75 | 1011.6 |
| 20260508004303 | 74 | 30 | 2.6 | 6.1 | 0.00 | 0.00 | 0.00 | 75 | 1011.6 |
| 20260508004202 | 75 | 0 | 2.6 | 6.1 | 0.00 | 0.00 | 0.00 | 75 | 1011.6 |
| 20260508004103 | 74 | 354 | 2.6 | 6.1 | 0.00 | 0.00 | 0.00 | 75 | 1011.7 |
| 20260508004005 | 74 | 7 | 2.6 | 6.1 | 0.00 | 0.00 | 0.00 | 75 | 1011.7 |
| 20260508003903 | 75 | 24 | 2.6 | 6.1 | 0.00 | 0.00 | 0.00 | 75 | 1011.6 |
| 20260508003803 | 75 | 0 | 3.5 | 6.1 | 0.00 | 0.00 | 0.00 | 75 | 1011.6 |
| 20260508003703 | 75 | 0 | 3.5 | 6.1 | 0.00 | 0.00 | 0.00 | 75 | 1011.6 |
| 20260508003603 | 75 | 28 | 3.5 | 6.1 | 0.00 | 0.00 | 0.00 | 75 | 1011.6 |
| 20260508003503 | 75 | 10 | 3.5 | 6.1 | 0.00 | 0.00 | 0.00 | 75 | 1011.6 |
| 20260508003402 | 75 | 17 | 4.3 | 6.1 | 0.00 | 0.00 | 0.00 | 75 | 1011.6 |
| 20260508003304 | 75 | 17 | 5.2 | 6.1 | 0.00 | 0.00 | 0.00 | 75 | 1011.6 |
| 20260508003201 | 75 | 0 | 4.3 | 6.1 | 0.00 | 0.00 | 0.00 | 75 | 1011.7 |
| 20260508003103 | 75 | 353 | 3.5 | 6.1 | 0.00 | 0.00 | 0.00 | 75 | 1011.7 |
| 20260508003006 | 75 | 1 | 3.5 | 5.2 | 0.00 | 0.00 | 0.00 | 75 | 1011.7 |
| 20260508002904 | 75 | 343 | 2.6 | 7.8 | 0.00 | 0.00 | 0.00 | 75 | 1011.8 |
| 20260508002802 | 75 | 0 | 2.6 | 7.8 | 0.00 | 0.00 | 0.00 | 74 | 1011.8 |
| 20260508002703 | 75 | 4 | 2.6 | 7.8 | 0.00 | 0.00 | 0.00 | 74 | 1011.7 |
| 20260508002603 | 75 | 4 | 2.6 | 7.8 | 0.00 | 0.00 | 0.00 | 74 | 1011.7 |
| 20260508002504 | 75 | 4 | 2.6 | 7.8 | 0.00 | 0.00 | 0.00 | 74 | 1011.7 |
| 20260508002403 | 75 | 4 | 2.6 | 7.8 | 0.00 | 0.00 | 0.00 | 74 | 1011.6 |
| 20260508002306 | 75 | 17 | 3.5 | 7.8 | 0.00 | 0.00 | 0.00 | 74 | 1011.6 |
| 20260508002202 | 75 | 13 | 3.5 | 7.8 | 0.00 | 0.00 | 0.00 | 74 | 1011.7 |
| 20260508002102 | 75 | 10 | 2.6 | 7.8 | 0.00 | 0.00 | 0.00 | 74 | 1011.7 |
| 20260508002003 | 75 | 10 | 2.6 | 7.8 | 0.00 | 0.00 | 0.00 | 74 | 1011.7 |
| 20260508001901 | 75 | 345 | 3.5 | 5.2 | 0.00 | 0.00 | 0.00 | 74 | 1011.7 |
| 20260508001803 | 75 | 344 | 3.5 | 5.2 | 0.00 | 0.00 | 0.00 | 74 | 1011.7 |
| 20260508001704 | 75 | 0 | 3.5 | 6.1 | 0.00 | 0.00 | 0.00 | 74 | 1011.7 |
| 20260508001602 | 75 | 357 | 3.5 | 6.1 | 0.00 | 0.00 | 0.00 | 74 | 1011.6 |
| 20260508001504 | 75 | 330 | 3.5 | 7.8 | 0.00 | 0.00 | 0.00 | 74 | 1011.7 |
| 20260508001403 | 75 | 7 | 3.5 | 7.8 | 0.00 | 0.00 | 0.00 | 75 | 1011.7 |
| 20260508001303 | 75 | 354 | 3.5 | 7.8 | 0.00 | 0.00 | 0.00 | 75 | 1011.8 |
| 20260508001202 | 75 | 357 | 2.6 | 7.8 | 0.00 | 0.00 | 0.00 | 75 | 1011.8 |
| 20260508001102 | 75 | 329 | 2.6 | 7.8 | 0.00 | 0.00 | 0.00 | 75 | 1011.8 |
| 20260508001004 | 75 | 21 | 3.5 | 7.8 | 0.00 | 0.00 | 0.00 | 75 | 1011.8 |
| 20260508000902 | 75 | 13 | 4.3 | 7.8 | 0.00 | 0.00 | 0.00 | 74 | 1011.8 |
| 20260508000803 | 75 | 358 | 4.3 | 7.8 | 0.00 | 0.00 | 0.00 | 74 | 1011.8 |
| 20260508000702 | 75 | 10 | 5.2 | 7.8 | 0.00 | 0.00 | 0.00 | 74 | 1011.7 |
| 20260508000601 | 76 | 0 | 5.2 | 8.7 | 0.00 | 0.00 | 0.00 | 74 | 1011.8 |
| 20260508000503 | 76 | 24 | 2.6 | 8.7 | 0.00 | 0.00 | 0.00 | 74 | 1011.7 |
| 20260508000405 | 76 | 350 | 2.6 | 8.7 | 0.00 | 0.00 | 0.00 | 74 | 1011.7 |
| 20260508000305 | 76 | 1 | 3.5 | 9.6 | 0.00 | 0.00 | 0.00 | 74 | 1011.7 |
| 20260508000204 | 76 | 0 | 3.5 | 9.6 | 0.00 | 0.00 | 0.00 | 74 | 1011.8 |
| 20260508000003 | 76 | 0 | 3.5 | 9.6 | 0.00 | 0.00 | 0.00 | 74 | 1011.8 |
| 20260507235903 | 76 | 347 | 5.2 | 9.6 | 0.00 | 0.00 | 0.00 | 74 | 1011.9 |
| 20260507235802 | 76 | 344 | 5.2 | 9.6 | 0.00 | 0.00 | 0.00 | 74 | 1011.9 |
| 20260507235702 | 76 | 8 | 4.3 | 9.6 | 0.00 | 0.00 | 0.00 | 74 | 1011.9 |
| 20260507235604 | 76 | 334 | 4.3 | 9.6 | 0.00 | 0.00 | 0.00 | 74 | 1011.9 |
| 20260507235502 | 76 | 0 | 5.2 | 9.6 | 0.00 | 0.00 | 0.00 | 74 | 1011.9 |
| 20260507235402 | 76 | 0 | 6.1 | 9.6 | 0.00 | 0.00 | 0.00 | 74 | 1011.9 |
| 20260507235306 | 76 | 14 | 4.3 | 9.6 | 0.00 | 0.00 | 0.00 | 74 | 1011.9 |
| 20260507235203 | 76 | 340 | 2.6 | 8.7 | 0.00 | 0.00 | 0.00 | 74 | 1011.9 |
| 20260507235102 | 76 | 351 | 3.5 | 8.7 | 0.00 | 0.00 | 0.00 | 74 | 1011.9 |
| 20260507235001 | 76 | 358 | 3.5 | 8.7 | 0.00 | 0.00 | 0.00 | 74 | 1011.9 |
| 20260507234903 | 76 | 354 | 2.6 | 8.7 | 0.00 | 0.00 | 0.00 | 74 | 1011.9 |
| 20260507234802 | 76 | 10 | 4.3 | 8.7 | 0.00 | 0.00 | 0.00 | 74 | 1011.9 |
| 20260507234702 | 76 | 10 | 4.3 | 8.7 | 0.00 | 0.00 | 0.00 | 75 | 1011.9 |
| 20260507234602 | 76 | 358 | 3.5 | 7.8 | 0.00 | 0.00 | 0.00 | 75 | 1011.9 |
| 20260507234504 | 76 | 0 | 3.5 | 7.8 | 0.00 | 0.00 | 0.00 | 75 | 1011.8 |
| 20260507234401 | 76 | 358 | 4.3 | 7.8 | 0.00 | 0.00 | 0.00 | 74 | 1011.8 |
| 20260507234302 | 76 | 350 | 3.5 | 7.8 | 0.00 | 0.00 | 0.00 | 75 | 1011.8 |
| 20260507234203 | 76 | 11 | 1.7 | 8.7 | 0.00 | 0.00 | 0.00 | 75 | 1011.7 |
| 20260507234102 | 76 | 0 | 2.6 | 8.7 | 0.00 | 0.00 | 0.00 | 75 | 1011.7 |
| 20260507234002 | 76 | 0 | 2.6 | 8.7 | 0.00 | 0.00 | 0.00 | 75 | 1011.7 |
| 20260507233903 | 76 | 3 | 3.5 | 8.7 | 0.00 | 0.00 | 0.00 | 75 | 1011.7 |
| 20260507233802 | 76 | 4 | 3.5 | 8.7 | 0.00 | 0.00 | 0.00 | 74 | 1011.6 |
| 20260507233702 | 76 | 10 | 3.5 | 8.7 | 0.00 | 0.00 | 0.00 | 74 | 1011.7 |
| 20260507233603 | 76 | 6 | 4.3 | 8.7 | 0.00 | 0.00 | 0.00 | 74 | 1011.6 |
| 20260507233504 | 77 | 21 | 4.3 | 8.7 | 0.00 | 0.00 | 0.00 | 73 | 1011.6 |
| 20260507233402 | 77 | 24 | 5.2 | 8.7 | 0.00 | 0.00 | 0.00 | 73 | 1011.6 |
| 20260507233302 | 77 | 20 | 3.5 | 8.7 | 0.00 | 0.00 | 0.00 | 73 | 1011.5 |
| 20260507233203 | 77 | 7 | 1.7 | 7.8 | 0.00 | 0.00 | 0.00 | 73 | 1011.5 |
| 20260507233103 | 77 | 10 | 2.6 | 7.8 | 0.00 | 0.00 | 0.00 | 73 | 1011.5 |
| 20260507233002 | 77 | 10 | 3.5 | 8.7 | 0.00 | 0.00 | 0.00 | 73 | 1011.6 |
| 20260507232903 | 77 | 7 | 3.5 | 8.7 | 0.00 | 0.00 | 0.00 | 72 | 1011.5 |
| 20260507232804 | 77 | 13 | 3.5 | 8.7 | 0.00 | 0.00 | 0.00 | 72 | 1011.5 |
| 20260507232703 | 77 | 4 | 3.5 | 8.7 | 0.00 | 0.00 | 0.00 | 72 | 1011.5 |
| 20260507232602 | 77 | 6 | 5.2 | 8.7 | 0.00 | 0.00 | 0.00 | 72 | 1011.5 |
| 20260507232503 | 77 | 28 | 5.2 | 8.7 | 0.00 | 0.00 | 0.00 | 72 | 1011.6 |
| 20260507232402 | 77 | 32 | 5.2 | 8.7 | 0.00 | 0.00 | 0.00 | 72 | 1011.6 |
| 20260507232258 | 77 | 25 | 4.3 | 8.7 | 0.00 | 0.00 | 0.00 | 72 | 1011.6 |
| 20260507232159 | 77 | 28 | 4.3 | 8.7 | 0.00 | 0.00 | 0.00 | 72 | 1011.6 |
| 20260507232057 | 77 | 13 | 3.5 | 9.6 | 0.00 | 0.00 | 0.00 | 72 | 1011.6 |
| 20260507231955 | 77 | 23 | 3.5 | 9.6 | 0.00 | 0.00 | 0.00 | 72 | 1011.5 |
| 20260507231855 | 77 | 23 | 5.2 | 9.6 | 0.00 | 0.00 | 0.00 | 72 | 1011.5 |
| 20260507231752 | 77 | 25 | 5.2 | 11.3 | 0.00 | 0.00 | 0.00 | 72 | 1011.4 |
| 20260507231651 | 78 | 37 | 4.3 | 11.3 | 0.00 | 0.00 | 0.00 | 71 | 1011.3 |
| 20260507231549 | 78 | 32 | 5.2 | 11.3 | 0.00 | 0.00 | 0.00 | 71 | 1011.4 |
| 20260507231447 | 78 | 27 | 5.2 | 11.3 | 0.00 | 0.00 | 0.00 | 72 | 1011.4 |
| 20260507231348 | 78 | 14 | 6.1 | 11.3 | 0.00 | 0.00 | 0.00 | 72 | 1011.3 |
| 20260507231244 | 78 | 21 | 5.2 | 11.3 | 0.00 | 0.00 | 0.00 | 72 | 1011.3 |
| 20260507231143 | 78 | 39 | 5.2 | 11.3 | 0.00 | 0.00 | 0.00 | 71 | 1011.3 |
| 20260507231043 | 78 | 30 | 6.1 | 11.3 | 0.00 | 0.00 | 0.00 | 72 | 1011.3 |
| 20260507230939 | 78 | 25 | 7.0 | 11.3 | 0.00 | 0.00 | 0.00 | 72 | 1011.3 |
| 20260507230839 | 78 | 17 | 6.1 | 11.3 | 0.00 | 0.00 | 0.00 | 72 | 1011.3 |
| 20260507230737 | 78 | 20 | 5.2 | 8.7 | 0.00 | 0.00 | 0.00 | 72 | 1011.4 |
| 20260507230632 | 78 | 31 | 5.2 | 7.8 | 0.00 | 0.00 | 0.00 | 72 | 1011.3 |
| 20260507230531 | 78 | 23 | 5.2 | 7.8 | 0.00 | 0.00 | 0.00 | 73 | 1011.4 |
| 20260507230432 | 78 | 10 | 5.2 | 7.8 | 0.00 | 0.00 | 0.00 | 72 | 1011.4 |
| 20260507230331 | 78 | 28 | 5.2 | 7.8 | 0.00 | 0.00 | 0.00 | 72 | 1011.4 |
| 20260507230233 | 78 | 10 | 6.1 | 7.8 | 0.00 | 0.00 | 0.00 | 72 | 1011.4 |
| 20260507230131 | 78 | 10 | 6.1 | 7.8 | 0.00 | 0.00 | 0.00 | 72 | 1011.4 |
| 20260507230031 | 78 | 17 | 6.1 | 7.8 | 0.00 | 0.00 | 0.00 | 72 | 1011.3 |
| 20260507225931 | 78 | 8 | 6.1 | 7.8 | 0.00 | 0.00 | 0.00 | 72 | 1011.2 |
| 20260507225832 | 77 | 10 | 4.3 | 7.8 | 0.00 | 0.00 | 0.00 | 72 | 1011.3 |
| 20260507225733 | 77 | 16 | 3.5 | 7.8 | 0.00 | 0.00 | 0.00 | 73 | 1011.2 |
| 20260507225633 | 77 | 16 | 3.5 | 7.8 | 0.00 | 0.00 | 0.00 | 73 | 1011.2 |
| 20260507225530 | 77 | 21 | 3.5 | 7.8 | 0.00 | 0.00 | 0.00 | 73 | 1011.2 |
| 20260507225430 | 78 | 0 | 2.6 | 8.7 | 0.00 | 0.00 | 0.00 | 73 | 1011.3 |
| 20260507225331 | 77 | 0 | 2.6 | 8.7 | 0.00 | 0.00 | 0.00 | 73 | 1011.1 |
| 20260507225232 | 77 | 0 | 2.6 | 8.7 | 0.00 | 0.00 | 0.00 | 73 | 1011.1 |
| 20260507225131 | 77 | 0 | 4.3 | 8.7 | 0.00 | 0.00 | 0.00 | 73 | 1011.1 |
| 20260507225032 | 77 | 7 | 4.3 | 8.7 | 0.00 | 0.00 | 0.00 | 72 | 1011.0 |
| 20260507224931 | 77 | 13 | 4.3 | 8.7 | 0.00 | 0.00 | 0.00 | 73 | 1011.1 |
| 20260507224830 | 77 | 0 | 5.2 | 8.7 | 0.00 | 0.00 | 0.00 | 72 | 1011.0 |
| 20260507224732 | 77 | 10 | 5.2 | 8.7 | 0.00 | 0.00 | 0.00 | 73 | 1011.1 |
| 20260507224631 | 78 | 14 | 6.1 | 8.7 | 0.00 | 0.00 | 0.00 | 73 | 1011.1 |
| 20260507224531 | 78 | 3 | 5.2 | 8.7 | 0.00 | 0.00 | 0.00 | 73 | 1011.0 |
| 20260507224429 | 78 | 17 | 3.5 | 7.8 | 0.00 | 0.00 | 0.00 | 73 | 1011.0 |
| 20260507224330 | 78 | 10 | 3.5 | 5.2 | 0.00 | 0.00 | 0.00 | 73 | 1011.0 |
| 20260507224226 | 78 | 10 | 3.5 | 5.2 | 0.00 | 0.00 | 0.00 | 73 | 1011.1 |
| 20260507224126 | 78 | 7 | 2.6 | 5.2 | 0.00 | 0.00 | 0.00 | 73 | 1011.1 |
| 20260507224023 | 78 | 10 | 2.6 | 5.2 | 0.00 | 0.00 | 0.00 | 73 | 1011.0 |
| 20260507223922 | 78 | 13 | 3.5 | 5.2 | 0.00 | 0.00 | 0.00 | 73 | 1011.1 |
| 20260507223821 | 78 | 17 | 4.3 | 5.2 | 0.00 | 0.00 | 0.00 | 73 | 1011.1 |
| 20260507223721 | 78 | 0 | 3.5 | 6.1 | 0.00 | 0.00 | 0.00 | 73 | 1011.2 |
| 20260507223621 | 78 | 6 | 2.6 | 6.1 | 0.00 | 0.00 | 0.00 | 73 | 1011.2 |
| 20260507223521 | 78 | 0 | 2.6 | 6.1 | 0.00 | 0.00 | 0.00 | 73 | 1011.2 |
| 20260507223420 | 78 | 7 | 3.5 | 6.1 | 0.00 | 0.00 | 0.00 | 72 | 1011.2 |
| 20260507223320 | 78 | 20 | 3.5 | 6.1 | 0.00 | 0.00 | 0.00 | 72 | 1011.1 |
| 20260507223220 | 78 | 21 | 3.5 | 6.1 | 0.00 | 0.00 | 0.00 | 72 | 1011.2 |
| 20260507223120 | 78 | 21 | 3.5 | 6.1 | 0.00 | 0.00 | 0.00 | 72 | 1011.1 |
| 20260507223020 | 78 | 24 | 2.6 | 6.1 | 0.00 | 0.00 | 0.00 | 72 | 1011.2 |
| 20260507222921 | 78 | 34 | 3.5 | 6.1 | 0.00 | 0.00 | 0.00 | 72 | 1011.1 |
| 20260507222821 | 78 | 37 | 4.3 | 7.8 | 0.00 | 0.00 | 0.00 | 72 | 1011.2 |
| 20260507222720 | 78 | 35 | 4.3 | 7.8 | 0.00 | 0.00 | 0.00 | 72 | 1011.1 |
| 20260507222622 | 78 | 25 | 4.3 | 8.7 | 0.00 | 0.00 | 0.00 | 72 | 1011.1 |
| 20260507222520 | 77 | 34 | 5.2 | 8.7 | 0.00 | 0.00 | 0.00 | 72 | 1011.1 |
| 20260507222420 | 77 | 28 | 3.5 | 8.7 | 0.00 | 0.00 | 0.00 | 73 | 1011.2 |
| 20260507222320 | 77 | 8 | 3.5 | 8.7 | 0.00 | 0.00 | 0.00 | 72 | 1011.2 |
| 20260507222222 | 77 | 21 | 3.5 | 8.7 | 0.00 | 0.00 | 0.00 | 72 | 1011.2 |
| 20260507222120 | 77 | 17 | 3.5 | 8.7 | 0.00 | 0.00 | 0.00 | 73 | 1011.2 |
| 20260507222020 | 77 | 18 | 5.2 | 8.7 | 0.00 | 0.00 | 0.00 | 73 | 1011.3 |
| 20260507221922 | 77 | 25 | 5.2 | 8.7 | 0.00 | 0.00 | 0.00 | 72 | 1011.3 |
| 20260507221820 | 77 | 21 | 5.2 | 8.7 | 0.00 | 0.00 | 0.00 | 72 | 1011.3 |
| 20260507221720 | 78 | 27 | 4.3 | 8.7 | 0.00 | 0.00 | 0.00 | 73 | 1011.3 |
| 20260507221620 | 78 | 10 | 2.6 | 6.1 | 0.00 | 0.00 | 0.00 | 73 | 1011.3 |
| 20260507221522 | 78 | 18 | 3.5 | 6.1 | 0.00 | 0.00 | 0.00 | 73 | 1011.2 |
| 20260507221420 | 78 | 11 | 3.5 | 7.8 | 0.00 | 0.00 | 0.00 | 72 | 1011.3 |
| 20260507221320 | 78 | 18 | 3.5 | 7.8 | 0.00 | 0.00 | 0.00 | 72 | 1011.2 |
| 20260507221221 | 78 | 13 | 2.6 | 7.8 | 0.00 | 0.00 | 0.00 | 71 | 1011.2 |
| 20260507221121 | 78 | 1 | 1.7 | 7.8 | 0.00 | 0.00 | 0.00 | 71 | 1011.4 |
| 20260507221019 | 78 | 0 | 1.7 | 7.8 | 0.00 | 0.00 | 0.00 | 71 | 1011.3 |
| 20260507220920 | 78 | 0 | 2.6 | 7.8 | 0.00 | 0.00 | 0.00 | 71 | 1011.3 |
| 20260507220821 | 78 | 0 | 2.6 | 7.8 | 0.00 | 0.00 | 0.00 | 71 | 1011.4 |
| 20260507220720 | 78 | 0 | 3.5 | 7.8 | 0.00 | 0.00 | 0.00 | 71 | 1011.4 |
| 20260507220620 | 78 | 0 | 5.2 | 7.8 | 0.00 | 0.00 | 0.00 | 71 | 1011.4 |
| 20260507220521 | 78 | 23 | 4.3 | 8.7 | 0.00 | 0.00 | 0.00 | 71 | 1011.5 |
| 20260507220420 | 78 | 28 | 3.5 | 8.7 | 0.00 | 0.00 | 0.00 | 71 | 1011.5 |
| 20260507220319 | 78 | 17 | 2.6 | 8.7 | 0.00 | 0.00 | 0.00 | 71 | 1011.5 |
| 20260507220221 | 78 | 17 | 3.5 | 8.7 | 0.00 | 0.00 | 0.00 | 71 | 1011.5 |
| 20260507220121 | 78 | 17 | 3.5 | 8.7 | 0.00 | 0.00 | 0.00 | 71 | 1011.4 |
| 20260507220020 | 78 | 13 | 3.5 | 8.7 | 0.00 | 0.00 | 0.00 | 71 | 1011.5 |
| 20260507215920 | 78 | 32 | 4.3 | 8.7 | 0.00 | 0.00 | 0.00 | 71 | 1011.5 |
| 20260507215820 | 78 | 23 | 3.5 | 8.7 | 0.00 | 0.00 | 0.00 | 71 | 1011.5 |
| 20260507215719 | 78 | 18 | 4.3 | 8.7 | 0.00 | 0.00 | 0.00 | 71 | 1011.4 |
| 20260507215619 | 78 | 17 | 4.3 | 8.7 | 0.00 | 0.00 | 0.00 | 71 | 1011.4 |
| 20260507215520 | 78 | 14 | 3.5 | 7.8 | 0.00 | 0.00 | 0.00 | 71 | 1011.4 |
| 20260507215421 | 78 | 14 | 2.6 | 7.8 | 0.00 | 0.00 | 0.00 | 70 | 1011.4 |
| 20260507215319 | 78 | 216 | 2.6 | 7.8 | 0.00 | 0.00 | 0.00 | 70 | 1011.5 |
| 20260507215219 | 79 | 224 | 2.6 | 7.8 | 0.00 | 0.00 | 0.00 | 70 | 1011.4 |
| 20260507215120 | 78 | 0 | 2.6 | 7.8 | 0.00 | 0.00 | 0.00 | 70 | 1011.6 |
| 20260507215019 | 78 | 0 | 2.6 | 7.8 | 0.00 | 0.00 | 0.00 | 71 | 1011.6 |
| 20260507214919 | 78 | 0 | 3.5 | 7.8 | 0.00 | 0.00 | 0.00 | 71 | 1011.6 |
| 20260507214819 | 78 | 8 | 4.3 | 7.8 | 0.00 | 0.00 | 0.00 | 70 | 1011.7 |
| 20260507214720 | 78 | 17 | 4.3 | 7.8 | 0.00 | 0.00 | 0.00 | 71 | 1011.6 |
| 20260507214620 | 78 | 21 | 2.6 | 7.8 | 0.00 | 0.00 | 0.00 | 72 | 1011.7 |
| 20260507214520 | 78 | 8 | 3.5 | 7.8 | 0.00 | 0.00 | 0.00 | 72 | 1011.7 |
| 20260507214421 | 77 | 13 | 3.5 | 7.8 | 0.00 | 0.00 | 0.00 | 72 | 1011.7 |
| 20260507214321 | 77 | 41 | 4.3 | 7.8 | 0.00 | 0.00 | 0.00 | 72 | 1011.7 |
| 20260507214220 | 77 | 27 | 4.3 | 7.8 | 0.00 | 0.00 | 0.00 | 71 | 1011.7 |
| 20260507214120 | 77 | 35 | 4.3 | 7.8 | 0.00 | 0.00 | 0.00 | 71 | 1011.6 |
| 20260507214019 | 77 | 38 | 5.2 | 7.8 | 0.00 | 0.00 | 0.00 | 71 | 1011.6 |
| 20260507213919 | 77 | 23 | 5.2 | 7.8 | 0.00 | 0.00 | 0.00 | 72 | 1011.8 |
| 20260507213820 | 77 | 21 | 4.3 | 8.7 | 0.00 | 0.00 | 0.00 | 71 | 1011.7 |
| 20260507213720 | 77 | 14 | 3.5 | 8.7 | 0.00 | 0.00 | 0.00 | 71 | 1011.8 |
| 20260507213620 | 78 | 11 | 4.3 | 8.7 | 0.00 | 0.00 | 0.00 | 71 | 1011.7 |
| 20260507213521 | 78 | 11 | 4.3 | 9.6 | 0.00 | 0.00 | 0.00 | 71 | 1011.7 |
| 20260507213420 | 78 | 0 | 4.3 | 9.6 | 0.00 | 0.00 | 0.00 | 71 | 1011.7 |
| 20260507213319 | 78 | 4 | 2.6 | 9.6 | 0.00 | 0.00 | 0.00 | 71 | 1011.7 |
| 20260507213219 | 78 | 8 | 2.6 | 9.6 | 0.00 | 0.00 | 0.00 | 71 | 1011.6 |
| 20260507213119 | 78 | 27 | 3.5 | 9.6 | 0.00 | 0.00 | 0.00 | 70 | 1011.7 |
| 20260507213020 | 78 | 18 | 4.3 | 9.6 | 0.00 | 0.00 | 0.00 | 70 | 1011.6 |
| 20260507212919 | 78 | 27 | 5.2 | 9.6 | 0.00 | 0.00 | 0.00 | 71 | 1011.7 |
| 20260507212820 | 78 | 52 | 4.3 | 9.6 | 0.00 | 0.00 | 0.00 | 71 | 1011.7 |
| 20260507212720 | 78 | 31 | 4.3 | 9.6 | 0.00 | 0.00 | 0.00 | 70 | 1011.7 |
| 20260507212621 | 78 | 347 | 4.3 | 9.6 | 0.00 | 0.00 | 0.00 | 69 | 1011.6 |
| 20260507212519 | 79 | 4 | 3.5 | 7.8 | 0.00 | 0.00 | 0.00 | 68 | 1011.6 |
| 20260507212419 | 79 | 0 | 3.5 | 7.8 | 0.00 | 0.00 | 0.00 | 68 | 1011.6 |
| 20260507212320 | 80 | 7 | 3.5 | 7.8 | 0.00 | 0.00 | 0.00 | 68 | 1011.6 |
| 20260507212218 | 80 | 357 | 3.5 | 8.7 | 0.00 | 0.00 | 0.00 | 67 | 1011.6 |
| 20260507212118 | 80 | 351 | 2.6 | 8.7 | 0.00 | 0.00 | 0.00 | 68 | 1011.7 |
| 20260507212019 | 80 | 4 | 2.6 | 8.7 | 0.00 | 0.00 | 0.00 | 68 | 1011.7 |
| 20260507211919 | 80 | 4 | 1.7 | 8.7 | 0.00 | 0.00 | 0.00 | 68 | 1011.7 |
| 20260507211820 | 80 | 4 | 2.6 | 8.7 | 0.00 | 0.00 | 0.00 | 70 | 1011.6 |
| 20260507211719 | 80 | 32 | 2.6 | 10.4 | 0.00 | 0.00 | 0.00 | 70 | 1011.7 |
| 20260507211621 | 79 | 17 | 3.5 | 10.4 | 0.00 | 0.00 | 0.00 | 71 | 1011.7 |
| 20260507211519 | 78 | 20 | 4.3 | 10.4 | 0.00 | 0.00 | 0.00 | 71 | 1011.7 |
| 20260507211418 | 78 | 51 | 5.2 | 10.4 | 0.00 | 0.00 | 0.00 | 70 | 1011.8 |
| 20260507211320 | 79 | 32 | 6.1 | 10.4 | 0.00 | 0.00 | 0.00 | 69 | 1011.8 |
| 20260507211219 | 79 | 51 | 5.2 | 10.4 | 0.00 | 0.00 | 0.00 | 69 | 1011.7 |
| 20260507211118 | 79 | 31 | 6.1 | 11.3 | 0.00 | 0.00 | 0.00 | 69 | 1011.8 |
| 20260507211018 | 79 | 30 | 6.1 | 11.3 | 0.00 | 0.00 | 0.00 | 69 | 1011.8 |
| 20260507210919 | 79 | 21 | 6.1 | 11.3 | 0.00 | 0.00 | 0.00 | 69 | 1011.8 |
| 20260507210818 | 79 | 25 | 6.1 | 11.3 | 0.00 | 0.00 | 0.00 | 69 | 1011.8 |
| 20260507210718 | 79 | 37 | 3.5 | 11.3 | 0.00 | 0.00 | 0.00 | 70 | 1011.7 |
| 20260507210620 | 78 | 27 | 3.5 | 11.3 | 0.00 | 0.00 | 0.00 | 69 | 1011.8 |
| 20260507210519 | 78 | 28 | 4.3 | 11.3 | 0.00 | 0.00 | 0.00 | 69 | 1011.8 |
| 20260507210418 | 78 | 25 | 5.2 | 11.3 | 0.00 | 0.00 | 0.00 | 70 | 1011.8 |
| 20260507210319 | 78 | 35 | 7.0 | 11.3 | 0.00 | 0.00 | 0.00 | 70 | 1011.9 |
| 20260507210220 | 79 | 6 | 6.1 | 11.3 | 0.00 | 0.00 | 0.00 | 70 | 1011.9 |
| 20260507210118 | 79 | 11 | 4.3 | 8.7 | 0.00 | 0.00 | 0.00 | 69 | 1011.9 |
| 20260507210019 | 79 | 45 | 5.2 | 8.7 | 0.00 | 0.00 | 0.00 | 69 | 1011.9 |
| 20260507205919 | 79 | 3 | 5.2 | 8.7 | 0.00 | 0.00 | 0.00 | 69 | 1011.9 |
| 20260507205819 | 79 | 20 | 4.3 | 9.6 | 0.00 | 0.00 | 0.00 | 70 | 1011.9 |
| 20260507205718 | 78 | 4 | 4.3 | 10.4 | 0.00 | 0.00 | 0.00 | 71 | 1012.0 |
| 20260507205619 | 78 | 20 | 5.2 | 10.4 | 0.00 | 0.00 | 0.00 | 69 | 1011.9 |
| 20260507205518 | 78 | 31 | 5.2 | 10.4 | 0.00 | 0.00 | 0.00 | 70 | 1011.8 |
| 20260507205419 | 79 | 23 | 4.3 | 10.4 | 0.00 | 0.00 | 0.00 | 70 | 1011.8 |
| 20260507205318 | 78 | 45 | 4.3 | 10.4 | 0.00 | 0.00 | 0.00 | 70 | 1011.8 |
| 20260507205219 | 79 | 45 | 4.3 | 10.4 | 0.00 | 0.00 | 0.00 | 69 | 1011.9 |
| 20260507205118 | 79 | 11 | 4.3 | 10.4 | 0.00 | 0.00 | 0.00 | 69 | 1011.9 |
| 20260507205018 | 79 | 0 | 5.2 | 10.4 | 0.00 | 0.00 | 0.00 | 70 | 1011.9 |
| 20260507204919 | 79 | 20 | 7.0 | 10.4 | 0.00 | 0.00 | 0.00 | 69 | 1011.8 |
| 20260507204818 | 79 | 21 | 6.1 | 10.4 | 0.00 | 0.00 | 0.00 | 70 | 1011.9 |
| 20260507204719 | 79 | 16 | 5.2 | 12.2 | 0.00 | 0.00 | 0.00 | 70 | 1012.0 |
| 20260507204618 | 79 | 41 | 7.0 | 12.2 | 0.00 | 0.00 | 0.00 | 69 | 1011.9 |
| 20260507204521 | 79 | 39 | 6.1 | 12.2 | 0.00 | 0.00 | 0.00 | 69 | 1012.0 |
| 20260507204419 | 79 | 44 | 4.3 | 12.2 | 0.00 | 0.00 | 0.00 | 70 | 1012.1 |
| 20260507204319 | 78 | 0 | 5.2 | 12.2 | 0.00 | 0.00 | 0.00 | 70 | 1012.0 |
| 20260507204219 | 78 | 25 | 6.1 | 12.2 | 0.00 | 0.00 | 0.00 | 70 | 1012.1 |
| 20260507204119 | 79 | 320 | 6.1 | 12.2 | 0.00 | 0.00 | 0.00 | 69 | 1012.0 |
| 20260507204018 | 79 | 3 | 6.1 | 12.2 | 0.00 | 0.00 | 0.00 | 69 | 1012.0 |
| 20260507203916 | 79 | 4 | 7.0 | 12.2 | 0.00 | 0.00 | 0.00 | 69 | 1012.0 |
| 20260507203815 | 79 | 1 | 7.0 | 12.2 | 0.00 | 0.00 | 0.00 | 69 | 1012.0 |
| 20260507203714 | 79 | 350 | 4.3 | 9.6 | 0.00 | 0.00 | 0.00 | 71 | 1012.0 |
| 20260507203611 | 79 | 24 | 2.6 | 9.6 | 0.00 | 0.00 | 0.00 | 71 | 1011.9 |
| 20260507203510 | 78 | 358 | 2.6 | 9.6 | 0.00 | 0.00 | 0.00 | 70 | 1011.9 |
| 20260507203409 | 78 | 24 | 3.5 | 9.6 | 0.00 | 0.00 | 0.00 | 70 | 1011.9 |
| 20260507203307 | 78 | 344 | 3.5 | 9.6 | 0.00 | 0.00 | 0.00 | 71 | 1011.9 |
| 20260507203207 | 78 | 357 | 3.5 | 9.6 | 0.00 | 0.00 | 0.00 | 71 | 1011.9 |
| 20260507203104 | 78 | 20 | 4.3 | 9.6 | 0.00 | 0.00 | 0.00 | 71 | 1012.0 |
| 20260507203003 | 78 | 341 | 6.1 | 9.6 | 0.00 | 0.00 | 0.00 | 71 | 1012.0 |
| 20260507202903 | 78 | 30 | 7.0 | 9.6 | 0.00 | 0.00 | 0.00 | 71 | 1012.1 |
| 20260507202802 | 78 | 357 | 5.2 | 9.6 | 0.00 | 0.00 | 0.00 | 71 | 1012.1 |
| 20260507202702 | 78 | 7 | 5.2 | 9.6 | 0.00 | 0.00 | 0.00 | 71 | 1012.1 |
| 20260507202602 | 78 | 11 | 6.1 | 9.6 | 0.00 | 0.00 | 0.00 | 70 | 1012.2 |
| 20260507202502 | 78 | 0 | 5.2 | 8.7 | 0.00 | 0.00 | 0.00 | 71 | 1012.3 |
| 20260507202403 | 78 | 3 | 4.3 | 8.7 | 0.00 | 0.00 | 0.00 | 71 | 1012.3 |
| 20260507202306 | 78 | 357 | 4.3 | 8.7 | 0.00 | 0.00 | 0.00 | 72 | 1012.3 |
| 20260507202202 | 78 | 34 | 4.3 | 8.7 | 0.00 | 0.00 | 0.00 | 72 | 1012.3 |
| 20260507202103 | 78 | 13 | 5.2 | 9.6 | 0.00 | 0.00 | 0.00 | 71 | 1012.3 |
| 20260507202004 | 78 | 17 | 5.2 | 9.6 | 0.00 | 0.00 | 0.00 | 71 | 1012.2 |
| 20260507201901 | 78 | 24 | 4.3 | 9.6 | 0.00 | 0.00 | 0.00 | 71 | 1012.2 |
| 20260507201801 | 78 | 17 | 3.5 | 9.6 | 0.00 | 0.00 | 0.00 | 70 | 1012.2 |
| 20260507201703 | 78 | 13 | 2.6 | 9.6 | 0.00 | 0.00 | 0.00 | 71 | 1012.1 |
| 20260507201601 | 78 | 54 | 2.6 | 9.6 | 0.00 | 0.00 | 0.00 | 69 | 1012.2 |
| 20260507201501 | 78 | 65 | 2.6 | 9.6 | 0.00 | 0.00 | 0.00 | 70 | 1012.2 |
| 20260507201358 | 78 | 11 | 4.3 | 9.6 | 0.00 | 0.00 | 0.00 | 69 | 1012.2 |
| 20260507201257 | 79 | 21 | 7.0 | 9.6 | 0.00 | 0.00 | 0.00 | 68 | 1012.2 |
| 20260507201155 | 79 | 44 | 6.1 | 9.6 | 0.00 | 0.00 | 0.00 | 68 | 1012.2 |
| 20260507201055 | 79 | 25 | 4.3 | 10.4 | 0.00 | 0.00 | 0.00 | 69 | 1012.3 |
| 20260507200952 | 79 | 61 | 4.3 | 10.4 | 0.00 | 0.00 | 0.00 | 69 | 1012.2 |
| 20260507200850 | 79 | 32 | 3.5 | 10.4 | 0.00 | 0.00 | 0.00 | 69 | 1012.3 |
| 20260507200749 | 79 | 47 | 3.5 | 10.4 | 0.00 | 0.00 | 0.00 | 69 | 1012.3 |
| 20260507200647 | 79 | 41 | 5.2 | 13.9 | 0.00 | 0.00 | 0.00 | 69 | 1012.3 |
| 20260507200545 | 79 | 47 | 3.5 | 13.9 | 0.00 | 0.00 | 0.00 | 71 | 1012.3 |
| 20260507200441 | 78 | 23 | 2.6 | 13.9 | 0.00 | 0.00 | 0.00 | 70 | 1012.3 |
| 20260507200340 | 78 | 71 | 4.3 | 13.9 | 0.00 | 0.00 | 0.00 | 70 | 1012.3 |
| 20260507200238 | 78 | 39 | 5.2 | 13.9 | 0.00 | 0.00 | 0.00 | 70 | 1012.3 |
| 20260507200136 | 78 | 32 | 5.2 | 13.9 | 0.00 | 0.00 | 0.00 | 71 | 1012.3 |
| 20260507200036 | 78 | 3 | 6.1 | 13.9 | 0.00 | 0.00 | 0.00 | 70 | 1012.2 |
| 20260507195933 | 78 | 21 | 6.1 | 13.9 | 0.00 | 0.00 | 0.00 | 70 | 1012.2 |
| 20260507195830 | 78 | 20 | 7.8 | 13.9 | 0.00 | 0.00 | 0.00 | 70 | 1012.2 |
| 20260507195731 | 78 | 25 | 7.0 | 13.9 | 0.00 | 0.00 | 0.00 | 70 | 1012.3 |
| 20260507195632 | 78 | 25 | 4.3 | 12.2 | 0.00 | 0.00 | 0.00 | 70 | 1012.3 |
| 20260507195531 | 78 | 56 | 4.3 | 12.2 | 0.00 | 0.00 | 0.00 | 70 | 1012.3 |
| 20260507195430 | 78 | 42 | 5.2 | 12.2 | 0.00 | 0.00 | 0.00 | 71 | 1012.3 |
| 20260507195332 | 78 | 76 | 6.1 | 12.2 | 0.00 | 0.00 | 0.00 | 71 | 1012.4 |
| 20260507195232 | 78 | 13 | 7.8 | 12.2 | 0.00 | 0.00 | 0.00 | 71 | 1012.3 |
| 20260507195131 | 77 | 61 | 7.8 | 12.2 | 0.00 | 0.00 | 0.00 | 70 | 1012.4 |
| 20260507195031 | 78 | 34 | 6.1 | 12.2 | 0.00 | 0.00 | 0.00 | 69 | 1012.4 |
| 20260507194932 | 78 | 85 | 6.1 | 12.2 | 0.00 | 0.00 | 0.00 | 70 | 1012.4 |
| 20260507194832 | 78 | 10 | 7.0 | 12.2 | 0.00 | 0.00 | 0.00 | 69 | 1012.5 |
| 20260507194730 | 78 | 6 | 7.0 | 12.2 | 0.00 | 0.00 | 0.00 | 69 | 1012.5 |
| 20260507194631 | 78 | 0 | 5.2 | 9.6 | 0.00 | 0.00 | 0.00 | 70 | 1012.4 |
| 20260507194531 | 78 | 7 | 3.5 | 9.6 | 0.00 | 0.00 | 0.00 | 70 | 1012.5 |
| 20260507194431 | 78 | 17 | 3.5 | 12.2 | 0.00 | 0.00 | 0.00 | 71 | 1012.5 |
| 20260507194329 | 78 | 0 | 4.3 | 12.2 | 0.00 | 0.00 | 0.00 | 71 | 1012.6 |
| 20260507194226 | 77 | 18 | 5.2 | 12.2 | 0.00 | 0.00 | 0.00 | 71 | 1012.6 |
| 20260507194125 | 78 | 39 | 5.2 | 12.2 | 0.00 | 0.00 | 0.00 | 70 | 1012.6 |
| 20260507194024 | 78 | 0 | 4.3 | 12.2 | 0.00 | 0.00 | 0.00 | 70 | 1012.6 |
| 20260507193923 | 77 | 14 | 5.2 | 12.2 | 0.00 | 0.00 | 0.00 | 71 | 1012.6 |
| 20260507193817 | 77 | 21 | 5.2 | 12.2 | 0.00 | 0.00 | 0.00 | 72 | 1012.6 |
| 20260507193717 | 77 | 7 | 6.1 | 12.2 | 0.00 | 0.00 | 0.00 | 73 | 1012.7 |
| 20260507193616 | 76 | 14 | 7.8 | 12.2 | 0.00 | 0.00 | 0.00 | 73 | 1012.7 |
| 20260507193516 | 76 | 30 | 6.1 | 12.2 | 0.00 | 0.00 | 0.00 | 73 | 1012.6 |
| 20260507193417 | 76 | 0 | 5.2 | 12.2 | 0.00 | 0.00 | 0.00 | 72 | 1012.7 |
| 20260507193316 | 76 | 0 | 6.1 | 12.2 | 0.00 | 0.00 | 0.00 | 71 | 1012.8 |
| 20260507193217 | 76 | 0 | 3.5 | 12.2 | 0.00 | 0.00 | 0.00 | 71 | 1012.8 |
| 20260507193117 | 77 | 1 | 3.5 | 12.2 | 0.00 | 0.00 | 0.00 | 72 | 1012.8 |
| 20260507193017 | 77 | 0 | 5.2 | 12.2 | 0.00 | 0.00 | 0.00 | 71 | 1012.8 |
| 20260507192916 | 77 | 6 | 5.2 | 12.2 | 0.00 | 0.00 | 0.00 | 71 | 1012.9 |
| 20260507192817 | 77 | 0 | 6.1 | 12.2 | 0.00 | 0.00 | 0.00 | 71 | 1012.9 |
| 20260507192718 | 77 | 0 | 7.8 | 13.9 | 0.00 | 0.00 | 0.00 | 71 | 1012.9 |
| 20260507192616 | 77 | 14 | 7.8 | 13.9 | 0.00 | 0.00 | 0.00 | 71 | 1013.0 |
| 20260507192517 | 77 | 0 | 7.8 | 13.9 | 0.00 | 0.00 | 0.00 | 72 | 1013.1 |
| 20260507192417 | 76 | 0 | 7.0 | 13.9 | 0.00 | 0.00 | 0.00 | 74 | 1013.0 |
| 20260507192316 | 76 | 31 | 7.0 | 13.9 | 0.00 | 0.00 | 0.00 | 73 | 1013.0 |
| 20260507192217 | 76 | 18 | 7.0 | 13.9 | 0.00 | 0.00 | 0.00 | 72 | 1013.0 |
| 20260507192117 | 76 | 0 | 6.1 | 13.9 | 0.00 | 0.00 | 0.00 | 73 | 1013.1 |
| 20260507192016 | 76 | 13 | 6.1 | 13.9 | 0.00 | 0.00 | 0.00 | 73 | 1013.1 |
| 20260507191916 | 76 | 13 | 7.8 | 13.9 | 0.00 | 0.00 | 0.00 | 73 | 1013.1 |
| 20260507191818 | 76 | 8 | 7.8 | 13.9 | 0.00 | 0.00 | 0.00 | 72 | 1013.0 |
| 20260507191719 | 76 | 7 | 7.0 | 12.2 | 0.00 | 0.00 | 0.00 | 72 | 1013.1 |
| 20260507191616 | 76 | 23 | 7.8 | 12.2 | 0.00 | 0.00 | 0.00 | 72 | 1013.1 |
| 20260507191516 | 76 | 23 | 8.7 | 12.2 | 0.00 | 0.00 | 0.00 | 72 | 1013.1 |
| 20260507191416 | 76 | 16 | 7.8 | 12.2 | 0.00 | 0.00 | 0.00 | 72 | 1013.1 |
| 20260507191316 | 76 | 32 | 5.2 | 12.2 | 0.00 | 0.00 | 0.00 | 72 | 1013.1 |
| 20260507191216 | 76 | 16 | 3.5 | 10.4 | 0.00 | 0.00 | 0.00 | 73 | 1013.2 |
| 20260507191117 | 76 | 18 | 3.5 | 12.2 | 0.00 | 0.00 | 0.00 | 73 | 1013.2 |
| 20260507191015 | 76 | 0 | 4.3 | 12.2 | 0.00 | 0.00 | 0.00 | 73 | 1013.1 |
| 20260507190915 | 75 | 0 | 4.3 | 12.2 | 0.00 | 0.00 | 0.00 | 73 | 1013.3 |
| 20260507190816 | 75 | 27 | 7.0 | 12.2 | 0.00 | 0.00 | 0.00 | 73 | 1013.3 |
| 20260507190717 | 75 | 28 | 7.8 | 12.2 | 0.00 | 0.00 | 0.00 | 73 | 1013.3 |
| 20260507190617 | 75 | 31 | 7.0 | 12.2 | 0.00 | 0.00 | 0.00 | 72 | 1013.4 |
| 20260507190516 | 75 | 34 | 7.0 | 12.2 | 0.00 | 0.00 | 0.00 | 72 | 1013.3 |
| 20260507190416 | 76 | 4 | 7.0 | 12.2 | 0.00 | 0.00 | 0.00 | 73 | 1013.3 |
| 20260507190316 | 76 | 21 | 7.0 | 12.2 | 0.00 | 0.00 | 0.00 | 73 | 1013.3 |
| 20260507190215 | 75 | 20 | 6.1 | 12.2 | 0.00 | 0.00 | 0.00 | 73 | 1013.3 |
| 20260507190118 | 75 | 28 | 7.0 | 11.3 | 0.00 | 0.00 | 0.00 | 73 | 1013.2 |
| 20260507190017 | 75 | 6 | 7.8 | 11.3 | 0.00 | 0.00 | 0.00 | 73 | 1013.3 |
| 20260507185916 | 75 | 23 | 7.8 | 11.3 | 0.00 | 0.00 | 0.00 | 73 | 1013.3 |
| 20260507185815 | 75 | 18 | 7.0 | 11.3 | 0.00 | 0.00 | 0.00 | 73 | 1013.3 |
| 20260507185717 | 75 | 0 | 7.0 | 12.2 | 0.00 | 0.00 | 0.00 | 73 | 1013.2 |
| 20260507185615 | 75 | 0 | 7.0 | 12.2 | 0.00 | 0.00 | 0.00 | 73 | 1013.2 |
| 20260507185516 | 75 | 13 | 5.2 | 12.2 | 0.00 | 0.00 | 0.00 | 73 | 1013.1 |
| 20260507185416 | 75 | 3 | 5.2 | 12.2 | 0.00 | 0.00 | 0.00 | 74 | 1013.2 |
| 20260507185315 | 75 | 24 | 6.1 | 12.2 | 0.00 | 0.00 | 0.00 | 73 | 1013.1 |
| 20260507185216 | 75 | 0 | 6.1 | 12.2 | 0.00 | 0.00 | 0.00 | 73 | 1013.1 |
| 20260507185116 | 75 | 0 | 6.1 | 12.2 | 0.00 | 0.00 | 0.00 | 72 | 1013.2 |
| 20260507185016 | 75 | 0 | 6.1 | 12.2 | 0.00 | 0.00 | 0.00 | 72 | 1013.2 |
| 20260507184915 | 76 | 214 | 8.7 | 12.2 | 0.00 | 0.00 | 0.00 | 72 | 1013.2 |
| 20260507184815 | 76 | 11 | 7.8 | 12.2 | 0.00 | 0.00 | 0.00 | 72 | 1013.2 |
| 20260507184716 | 76 | 8 | 7.0 | 11.3 | 0.00 | 0.00 | 0.00 | 72 | 1013.2 |
| 20260507184615 | 76 | 0 | 6.1 | 10.4 | 0.00 | 0.00 | 0.00 | 73 | 1013.3 |
| 20260507184516 | 76 | 34 | 5.2 | 10.4 | 0.00 | 0.00 | 0.00 | 73 | 1013.3 |
| 20260507184417 | 76 | 0 | 3.5 | 10.4 | 0.00 | 0.00 | 0.00 | 73 | 1013.2 |
| 20260507184317 | 75 | 11 | 3.5 | 10.4 | 0.00 | 0.00 | 0.00 | 74 | 1013.3 |
| 20260507184215 | 75 | 24 | 4.3 | 10.4 | 0.00 | 0.00 | 0.00 | 73 | 1013.3 |
| 20260507184115 | 75 | 8 | 5.2 | 10.4 | 0.00 | 0.00 | 0.00 | 73 | 1013.4 |
| 20260507184017 | 75 | 0 | 6.1 | 10.4 | 0.00 | 0.00 | 0.00 | 73 | 1013.3 |
| 20260507183916 | 75 | 0 | 5.2 | 10.4 | 0.00 | 0.00 | 0.00 | 74 | 1013.3 |
| 20260507183816 | 75 | 0 | 5.2 | 9.6 | 0.00 | 0.00 | 0.00 | 73 | 1013.3 |
| 20260507183716 | 75 | 0 | 6.1 | 9.6 | 0.00 | 0.00 | 0.00 | 74 | 1013.3 |
| 20260507183617 | 75 | 0 | 7.0 | 9.6 | 0.00 | 0.00 | 0.00 | 73 | 1013.3 |
| 20260507183516 | 75 | 0 | 4.3 | 9.6 | 0.00 | 0.00 | 0.00 | 75 | 1013.4 |
| 20260507183415 | 74 | 11 | 4.3 | 9.6 | 0.00 | 0.00 | 0.00 | 75 | 1013.3 |
| 20260507183317 | 74 | 0 | 5.2 | 12.2 | 0.00 | 0.00 | 0.00 | 75 | 1013.4 |
| 20260507183215 | 74 | 10 | 4.3 | 12.2 | 0.00 | 0.00 | 0.00 | 75 | 1013.4 |
| 20260507183115 | 74 | 3 | 5.2 | 12.2 | 0.00 | 0.00 | 0.00 | 74 | 1013.4 |
| 20260507183016 | 74 | 10 | 5.2 | 12.2 | 0.00 | 0.00 | 0.00 | 75 | 1013.5 |
| 20260507182916 | 74 | 0 | 4.3 | 12.2 | 0.00 | 0.00 | 0.00 | 74 | 1013.5 |
| 20260507182815 | 74 | 1 | 5.2 | 12.2 | 0.00 | 0.00 | 0.00 | 74 | 1013.3 |
| 20260507182715 | 74 | 0 | 5.2 | 12.2 | 0.00 | 0.00 | 0.00 | 74 | 1013.4 |
| 20260507182617 | 74 | 0 | 5.2 | 12.2 | 0.00 | 0.00 | 0.00 | 74 | 1013.4 |
| 20260507182514 | 74 | 0 | 7.0 | 12.2 | 0.00 | 0.00 | 0.00 | 75 | 1013.4 |
| 20260507182415 | 74 | 3 | 7.0 | 12.2 | 0.00 | 0.00 | 0.00 | 74 | 1013.5 |
| 20260507182316 | 74 | 0 | 5.2 | 11.3 | 0.00 | 0.00 | 0.00 | 75 | 1013.5 |
| 20260507182216 | 74 | 1 | 3.5 | 11.3 | 0.00 | 0.00 | 0.00 | 74 | 1013.4 |
| 20260507182115 | 74 | 1 | 5.2 | 11.3 | 0.00 | 0.00 | 0.00 | 73 | 1013.5 |
| 20260507182017 | 74 | 8 | 6.1 | 11.3 | 0.00 | 0.00 | 0.00 | 73 | 1013.5 |
| 20260507181916 | 75 | 0 | 6.1 | 11.3 | 0.00 | 0.00 | 0.00 | 73 | 1013.5 |
| 20260507181815 | 75 | 3 | 6.1 | 10.4 | 0.00 | 0.00 | 0.00 | 74 | 1013.5 |
| 20260507181715 | 75 | 30 | 5.2 | 10.4 | 0.00 | 0.00 | 0.00 | 74 | 1013.5 |
| 20260507181615 | 75 | 8 | 4.3 | 10.4 | 0.00 | 0.00 | 0.00 | 74 | 1013.5 |
| 20260507181515 | 74 | 0 | 4.3 | 10.4 | 0.00 | 0.00 | 0.00 | 74 | 1013.5 |
| 20260507181416 | 75 | 0 | 4.3 | 10.4 | 0.00 | 0.00 | 0.00 | 73 | 1013.4 |
| 20260507181314 | 75 | 0 | 5.2 | 10.4 | 0.00 | 0.00 | 0.00 | 74 | 1013.6 |
| 20260507181216 | 75 | 17 | 6.1 | 10.4 | 0.00 | 0.00 | 0.00 | 74 | 1013.6 |
| 20260507181114 | 75 | 0 | 6.1 | 10.4 | 0.00 | 0.00 | 0.00 | 75 | 1013.6 |
| 20260507181015 | 74 | 0 | 4.3 | 10.4 | 0.00 | 0.00 | 0.00 | 76 | 1013.6 |
| 20260507180915 | 74 | 0 | 2.6 | 10.4 | 0.00 | 0.00 | 0.00 | 76 | 1013.6 |
| 20260507180815 | 74 | 0 | 3.5 | 10.4 | 0.00 | 0.00 | 0.00 | 75 | 1013.7 |
| 20260507180715 | 73 | 0 | 5.2 | 10.4 | 0.00 | 0.00 | 0.00 | 76 | 1013.7 |
| 20260507180615 | 74 | 0 | 5.2 | 10.4 | 0.00 | 0.00 | 0.00 | 75 | 1013.7 |
| 20260507180514 | 74 | 0 | 3.5 | 10.4 | 0.00 | 0.00 | 0.00 | 74 | 1013.7 |
| 20260507180415 | 74 | 3 | 5.2 | 10.4 | 0.00 | 0.00 | 0.00 | 74 | 1013.7 |
| 20260507180316 | 74 | 3 | 5.2 | 10.4 | 0.00 | 0.00 | 0.00 | 74 | 1013.8 |
| 20260507180216 | 74 | 3 | 5.2 | 11.3 | 0.00 | 0.00 | 0.00 | 74 | 1013.8 |
| 20260507180116 | 74 | 3 | 5.2 | 11.3 | 0.00 | 0.00 | 0.00 | 74 | 1013.8 |
| 20260507180004 | 74 | 3 | 5.2 | 11.3 | 0.00 | 0.00 | 0.00 | 74 | 1013.8 |
| 20260507175902 | 74 | 0 | 5.2 | 11.3 | 0.00 | 0.00 | 0.00 | 74 | 1013.8 |
| 20260507175803 | 74 | 0 | 5.2 | 11.3 | 0.00 | 0.00 | 0.00 | 73 | 1013.8 |
| 20260507175704 | 75 | 0 | 6.1 | 11.3 | 0.00 | 0.00 | 0.00 | 73 | 1013.8 |
| 20260507175602 | 75 | 0 | 7.8 | 11.3 | 0.00 | 0.00 | 0.00 | 73 | 1013.8 |
| 20260507175502 | 75 | 25 | 7.0 | 11.3 | 0.00 | 0.00 | 0.00 | 73 | 1013.9 |
| 20260507175403 | 75 | 13 | 7.0 | 11.3 | 0.00 | 0.00 | 0.00 | 73 | 1013.8 |
| 20260507175306 | 75 | 0 | 7.0 | 11.3 | 0.00 | 0.00 | 0.00 | 74 | 1013.9 |
| 20260507175202 | 75 | 10 | 6.1 | 11.3 | 0.00 | 0.00 | 0.00 | 75 | 1013.8 |
| 20260507175102 | 74 | 17 | 6.1 | 11.3 | 0.00 | 0.00 | 0.00 | 74 | 1013.8 |
| 20260507175004 | 74 | 24 | 4.3 | 11.3 | 0.00 | 0.00 | 0.00 | 75 | 1013.9 |
| 20260507174902 | 74 | 1 | 3.5 | 11.3 | 0.00 | 0.00 | 0.00 | 75 | 1013.9 |
| 20260507174803 | 74 | 0 | 4.3 | 11.3 | 0.00 | 0.00 | 0.00 | 75 | 1014.0 |
| 20260507174704 | 73 | 0 | 7.0 | 11.3 | 0.00 | 0.00 | 0.00 | 75 | 1014.1 |
| 20260507174602 | 74 | 13 | 7.8 | 11.3 | 0.00 | 0.00 | 0.00 | 74 | 1014.0 |
| 20260507174503 | 74 | 21 | 7.0 | 11.3 | 0.00 | 0.00 | 0.00 | 74 | 1014.1 |
| 20260507174403 | 74 | 11 | 7.0 | 11.3 | 0.00 | 0.00 | 0.00 | 75 | 1014.1 |
| 20260507174302 | 74 | 10 | 5.2 | 11.3 | 0.00 | 0.00 | 0.00 | 75 | 1014.1 |
| 20260507174202 | 74 | 16 | 5.2 | 11.3 | 0.00 | 0.00 | 0.00 | 75 | 1014.1 |
| 20260507174101 | 73 | 4 | 5.2 | 11.3 | 0.00 | 0.00 | 0.00 | 74 | 1014.1 |
| 20260507174004 | 73 | 17 | 6.1 | 11.3 | 0.00 | 0.00 | 0.00 | 74 | 1014.1 |
| 20260507173902 | 73 | 14 | 6.1 | 11.3 | 0.00 | 0.00 | 0.00 | 74 | 1014.0 |
| 20260507173802 | 74 | 6 | 6.1 | 10.4 | 0.00 | 0.00 | 0.00 | 74 | 1014.0 |
| 20260507173703 | 74 | 18 | 7.0 | 10.4 | 0.00 | 0.00 | 0.00 | 73 | 1014.0 |
| 20260507173603 | 74 | 27 | 7.0 | 10.4 | 0.00 | 0.00 | 0.00 | 74 | 1014.1 |
| 20260507173504 | 74 | 0 | 5.2 | 9.6 | 0.00 | 0.00 | 0.00 | 75 | 1014.0 |
| 20260507173402 | 74 | 24 | 4.3 | 9.6 | 0.00 | 0.00 | 0.00 | 75 | 1014.0 |
| 20260507173303 | 73 | 0 | 5.2 | 9.6 | 0.00 | 0.00 | 0.00 | 75 | 1014.0 |
| 20260507173202 | 73 | 0 | 5.2 | 9.6 | 0.00 | 0.00 | 0.00 | 74 | 1014.1 |
| 20260507173101 | 73 | 0 | 5.2 | 9.6 | 0.00 | 0.00 | 0.00 | 74 | 1014.1 |
| 20260507173002 | 73 | 20 | 6.1 | 9.6 | 0.00 | 0.00 | 0.00 | 74 | 1014.1 |
| 20260507172903 | 73 | 7 | 5.2 | 9.6 | 0.00 | 0.00 | 0.00 | 74 | 1014.1 |
| 20260507172802 | 73 | 18 | 5.2 | 7.8 | 0.00 | 0.00 | 0.00 | 74 | 1014.0 |
| 20260507172705 | 73 | 16 | 4.3 | 7.8 | 0.00 | 0.00 | 0.00 | 74 | 1014.1 |
| 20260507172603 | 73 | 21 | 5.2 | 7.8 | 0.00 | 0.00 | 0.00 | 74 | 1014.1 |
| 20260507172502 | 74 | 180 | 5.2 | 7.8 | 0.00 | 0.00 | 0.00 | 74 | 1014.1 |
| 20260507172402 | 73 | 11 | 3.5 | 9.6 | 0.00 | 0.00 | 0.00 | 74 | 1014.1 |
| 20260507172307 | 73 | 0 | 4.3 | 10.4 | 0.00 | 0.00 | 0.00 | 74 | 1014.1 |
| 20260507172202 | 74 | 0 | 5.2 | 10.4 | 0.00 | 0.00 | 0.00 | 75 | 1014.2 |
| 20260507172102 | 73 | 0 | 4.3 | 10.4 | 0.00 | 0.00 | 0.00 | 76 | 1014.2 |
| 20260507172004 | 73 | 8 | 3.5 | 10.4 | 0.00 | 0.00 | 0.00 | 76 | 1014.2 |
| 20260507171903 | 73 | 8 | 3.5 | 10.4 | 0.00 | 0.00 | 0.00 | 76 | 1014.2 |
| 20260507171802 | 73 | 8 | 3.5 | 10.4 | 0.00 | 0.00 | 0.00 | 76 | 1014.1 |
| 20260507171702 | 73 | 4 | 3.5 | 10.4 | 0.00 | 0.00 | 0.00 | 76 | 1014.2 |
| 20260507171603 | 72 | 13 | 4.3 | 10.4 | 0.00 | 0.00 | 0.00 | 76 | 1014.2 |
| 20260507171502 | 72 | 169 | 6.1 | 10.4 | 0.00 | 0.00 | 0.00 | 76 | 1014.2 |
| 20260507171403 | 72 | 13 | 5.2 | 10.4 | 0.00 | 0.00 | 0.00 | 76 | 1014.3 |
| 20260507171303 | 72 | 155 | 5.2 | 8.7 | 0.00 | 0.00 | 0.00 | 77 | 1014.3 |
| 20260507171202 | 72 | 7 | 5.2 | 11.3 | 0.00 | 0.00 | 0.00 | 76 | 1014.3 |
| 20260507171102 | 72 | 3 | 3.5 | 11.3 | 0.00 | 0.00 | 0.00 | 77 | 1014.3 |
| 20260507171002 | 71 | 16 | 3.5 | 11.3 | 0.00 | 0.00 | 0.00 | 77 | 1014.3 |
| 20260507170902 | 71 | 8 | 4.3 | 11.3 | 0.00 | 0.00 | 0.00 | 77 | 1014.4 |
| 20260507170801 | 71 | 10 | 4.3 | 11.3 | 0.00 | 0.00 | 0.00 | 78 | 1014.3 |
| 20260507170702 | 71 | 1 | 5.2 | 11.3 | 0.00 | 0.00 | 0.00 | 78 | 1014.4 |
| 20260507170603 | 71 | 157 | 6.1 | 11.3 | 0.00 | 0.00 | 0.00 | 78 | 1014.3 |
| 20260507170503 | 70 | 20 | 7.8 | 11.3 | 0.00 | 0.00 | 0.00 | 78 | 1014.3 |
| 20260507170402 | 70 | 20 | 7.8 | 11.3 | 0.00 | 0.00 | 0.00 | 78 | 1014.4 |
| 20260507170303 | 70 | 20 | 7.8 | 11.3 | 0.00 | 0.00 | 0.00 | 78 | 1014.4 |
| 20260507170202 | 70 | 18 | 7.0 | 10.4 | 0.00 | 0.00 | 0.00 | 77 | 1014.4 |
| 20260507170103 | 70 | 21 | 7.0 | 10.4 | 0.00 | 0.00 | 0.00 | 77 | 1014.3 |
| 20260507170003 | 71 | 20 | 6.1 | 9.6 | 0.00 | 0.00 | 0.00 | 77 | 1014.3 |
| 20260507165904 | 71 | 21 | 5.2 | 9.6 | 0.00 | 0.00 | 0.00 | 78 | 1014.3 |
| 20260507165803 | 70 | 23 | 5.2 | 11.3 | 0.00 | 0.00 | 0.00 | 77 | 1014.3 |
| 20260507165702 | 70 | 6 | 6.1 | 11.3 | 0.00 | 0.00 | 0.00 | 77 | 1014.3 |
| 20260507165602 | 71 | 11 | 6.1 | 11.3 | 0.00 | 0.00 | 0.00 | 77 | 1014.3 |
| 20260507165502 | 71 | 20 | 6.1 | 11.3 | 0.00 | 0.00 | 0.00 | 77 | 1014.2 |
| 20260507165403 | 71 | 8 | 5.2 | 11.3 | 0.00 | 0.00 | 0.00 | 77 | 1014.3 |
| 20260507165306 | 71 | 10 | 4.3 | 11.3 | 0.00 | 0.00 | 0.00 | 78 | 1014.3 |
| 20260507165202 | 70 | 7 | 5.2 | 11.3 | 0.00 | 0.00 | 0.00 | 78 | 1014.2 |
| 20260507165103 | 70 | 1 | 7.0 | 11.3 | 0.00 | 0.00 | 0.00 | 76 | 1014.1 |
| 20260507165003 | 70 | 0 | 7.8 | 11.3 | 0.00 | 0.00 | 0.00 | 76 | 1014.1 |
| 20260507164903 | 71 | 7 | 5.2 | 11.3 | 0.00 | 0.00 | 0.00 | 77 | 1014.1 |
| 20260507164803 | 70 | 204 | 3.5 | 10.4 | 0.00 | 0.00 | 0.00 | 77 | 1014.0 |
| 20260507164701 | 70 | 0 | 5.2 | 10.4 | 0.00 | 0.00 | 0.00 | 77 | 1014.0 |
| 20260507164603 | 70 | 1 | 5.2 | 11.3 | 0.00 | 0.00 | 0.00 | 76 | 1014.1 |
| 20260507164504 | 71 | 207 | 4.3 | 11.3 | 0.00 | 0.00 | 0.00 | 76 | 1014.0 |
| 20260507164402 | 71 | 8 | 4.3 | 11.3 | 0.00 | 0.00 | 0.00 | 76 | 1014.0 |
| 20260507164302 | 71 | 8 | 5.2 | 12.2 | 0.00 | 0.00 | 0.00 | 76 | 1014.1 |
| 20260507164202 | 71 | 0 | 6.1 | 12.2 | 0.00 | 0.00 | 0.00 | 76 | 1014.1 |
| 20260507164102 | 71 | 16 | 5.2 | 12.2 | 0.00 | 0.00 | 0.00 | 77 | 1014.1 |
| 20260507164002 | 71 | 11 | 4.3 | 12.2 | 0.00 | 0.00 | 0.00 | 77 | 1014.1 |
| 20260507163903 | 70 | 10 | 6.1 | 12.2 | 0.00 | 0.00 | 0.00 | 76 | 1014.0 |
| 20260507163802 | 70 | 14 | 7.0 | 12.2 | 0.00 | 0.00 | 0.00 | 76 | 1014.1 |
| 20260507163702 | 70 | 21 | 6.1 | 13.0 | 0.00 | 0.00 | 0.00 | 77 | 1014.1 |
| 20260507163602 | 71 | 23 | 6.1 | 13.0 | 0.00 | 0.00 | 0.00 | 76 | 1014.1 |
| 20260507163503 | 71 | 0 | 6.1 | 13.0 | 0.00 | 0.00 | 0.00 | 77 | 1014.1 |
| 20260507163402 | 71 | 204 | 7.0 | 13.0 | 0.00 | 0.00 | 0.00 | 76 | 1014.0 |
| 20260507163302 | 71 | 200 | 6.1 | 13.0 | 0.00 | 0.00 | 0.00 | 77 | 1014.0 |
| 20260507163201 | 71 | 0 | 4.3 | 13.0 | 0.00 | 0.00 | 0.00 | 78 | 1014.0 |
| 20260507163101 | 70 | 14 | 1.7 | 13.0 | 0.00 | 0.00 | 0.00 | 78 | 1014.0 |
| 20260507163004 | 70 | 3 | 2.6 | 13.0 | 0.00 | 0.00 | 0.00 | 78 | 1013.8 |
| 20260507162902 | 70 | 4 | 7.0 | 13.0 | 0.00 | 0.00 | 0.00 | 78 | 1013.8 |
| 20260507162803 | 70 | 25 | 7.0 | 13.0 | 0.00 | 0.00 | 0.00 | 78 | 1013.8 |
| 20260507162702 | 70 | 11 | 6.1 | 13.0 | 0.00 | 0.00 | 0.00 | 77 | 1013.8 |
| 20260507162603 | 70 | 11 | 7.8 | 13.0 | 0.00 | 0.00 | 0.00 | 78 | 1013.8 |
| 20260507162504 | 70 | 23 | 7.0 | 13.0 | 0.00 | 0.00 | 0.00 | 78 | 1013.9 |
| 20260507162402 | 70 | 31 | 4.3 | 13.0 | 0.00 | 0.00 | 0.00 | 78 | 1013.9 |
| 20260507162306 | 69 | 0 | 4.3 | 13.0 | 0.00 | 0.00 | 0.00 | 78 | 1013.8 |
| 20260507162203 | 69 | 17 | 6.1 | 13.0 | 0.00 | 0.00 | 0.00 | 78 | 1013.7 |
| 20260507162103 | 69 | 4 | 7.8 | 15.6 | 0.00 | 0.00 | 0.00 | 78 | 1013.6 |
| 20260507162004 | 69 | 27 | 7.8 | 15.6 | 0.00 | 0.00 | 0.00 | 78 | 1013.7 |
| 20260507161903 | 69 | 190 | 8.7 | 15.6 | 0.00 | 0.00 | 0.00 | 78 | 1013.6 |
| 20260507161803 | 69 | 10 | 9.6 | 15.6 | 0.00 | 0.00 | 0.00 | 79 | 1013.6 |
| 20260507161704 | 69 | 11 | 8.7 | 15.6 | 0.00 | 0.00 | 0.00 | 79 | 1013.6 |
| 20260507161602 | 69 | 17 | 7.8 | 15.6 | 0.00 | 0.00 | 0.00 | 78 | 1013.6 |
| 20260507161503 | 69 | 42 | 7.8 | 15.6 | 0.00 | 0.00 | 0.00 | 78 | 1013.6 |
| 20260507161404 | 69 | 13 | 7.8 | 15.6 | 0.00 | 0.00 | 0.00 | 79 | 1013.6 |
| 20260507161301 | 69 | 6 | 9.6 | 15.6 | 0.00 | 0.00 | 0.00 | 78 | 1013.7 |
| 20260507161202 | 69 | 20 | 9.6 | 15.6 | 0.00 | 0.00 | 0.00 | 79 | 1013.7 |
| 20260507161102 | 69 | 10 | 8.7 | 13.0 | 0.00 | 0.00 | 0.00 | 79 | 1013.8 |
| 20260507161002 | 69 | 24 | 7.0 | 13.0 | 0.00 | 0.00 | 0.00 | 79 | 1013.8 |
| 20260507160902 | 69 | 21 | 6.1 | 9.6 | 0.00 | 0.00 | 0.00 | 80 | 1013.8 |
| 20260507160804 | 69 | 16 | 7.0 | 11.3 | 0.00 | 0.00 | 0.00 | 80 | 1013.9 |
| 20260507160703 | 69 | 11 | 6.1 | 11.3 | 0.00 | 0.00 | 0.00 | 80 | 1013.9 |
| 20260507160602 | 69 | 16 | 4.3 | 11.3 | 0.00 | 0.00 | 0.00 | 81 | 1014.0 |
| 20260507160503 | 68 | 10 | 3.5 | 11.3 | 0.00 | 0.00 | 0.00 | 81 | 1014.0 |
| 20260507160402 | 68 | 0 | 5.2 | 11.3 | 0.00 | 0.00 | 0.00 | 81 | 1014.1 |
| 20260507160303 | 68 | 6 | 4.3 | 11.3 | 0.00 | 0.00 | 0.00 | 81 | 1014.1 |
| 20260507160202 | 68 | 10 | 4.3 | 11.3 | 0.00 | 0.00 | 0.00 | 81 | 1014.1 |
| 20260507160002 | 67 | 13 | 7.8 | 11.3 | 0.00 | 0.00 | 0.00 | 81 | 1014.1 |
| 20260507155901 | 67 | 11 | 8.7 | 11.3 | 0.00 | 0.00 | 0.00 | 81 | 1014.2 |
| 20260507155803 | 67 | 14 | 7.8 | 11.3 | 0.00 | 0.00 | 0.00 | 82 | 1014.1 |
| 20260507155703 | 67 | 11 | 6.1 | 10.4 | 0.00 | 0.00 | 0.00 | 82 | 1014.1 |
| 20260507155603 | 67 | 0 | 5.2 | 10.4 | 0.00 | 0.00 | 0.00 | 82 | 1014.2 |
| 20260507155502 | 67 | 0 | 6.1 | 10.4 | 0.00 | 0.00 | 0.00 | 82 | 1014.2 |
| 20260507155401 | 67 | 0 | 7.0 | 10.4 | 0.00 | 0.00 | 0.00 | 82 | 1014.2 |
| 20260507155305 | 67 | 0 | 5.2 | 10.4 | 0.00 | 0.00 | 0.00 | 82 | 1014.3 |
| 20260507155202 | 67 | 7 | 4.3 | 7.8 | 0.00 | 0.00 | 0.00 | 82 | 1014.2 |
| 20260507155103 | 67 | 0 | 4.3 | 10.4 | 0.00 | 0.00 | 0.00 | 83 | 1014.2 |
| 20260507155003 | 67 | 0 | 4.3 | 10.4 | 0.00 | 0.00 | 0.00 | 83 | 1014.2 |
| 20260507154902 | 67 | 0 | 4.3 | 10.4 | 0.00 | 0.00 | 0.00 | 82 | 1014.2 |
| 20260507154801 | 67 | 7 | 5.2 | 10.4 | 0.00 | 0.00 | 0.00 | 82 | 1014.2 |
| 20260507154703 | 67 | 0 | 5.2 | 10.4 | 0.00 | 0.00 | 0.00 | 82 | 1014.2 |
| 20260507154601 | 67 | 82 | 3.5 | 10.4 | 0.00 | 0.00 | 0.00 | 83 | 1014.2 |
| 20260507154502 | 66 | 1 | 3.5 | 10.4 | 0.00 | 0.00 | 0.00 | 83 | 1014.3 |
| 20260507154403 | 66 | 8 | 4.3 | 10.4 | 0.00 | 0.00 | 0.00 | 83 | 1014.3 |
| 20260507154302 | 66 | 3 | 6.1 | 10.4 | 0.00 | 0.00 | 0.00 | 83 | 1014.3 |
| 20260507154202 | 66 | 3 | 7.0 | 10.4 | 0.00 | 0.00 | 0.00 | 83 | 1014.2 |
| 20260507154104 | 66 | 0 | 7.0 | 10.4 | 0.00 | 0.00 | 0.00 | 83 | 1014.2 |
| 20260507154005 | 66 | 6 | 5.2 | 10.4 | 0.00 | 0.00 | 0.00 | 84 | 1014.2 |
| 20260507153903 | 66 | 4 | 3.5 | 10.4 | 0.00 | 0.00 | 0.00 | 83 | 1014.2 |
| 20260507153803 | 65 | 4 | 5.2 | 10.4 | 0.00 | 0.00 | 0.00 | 84 | 1014.2 |
| 20260507153703 | 65 | 4 | 5.2 | 10.4 | 0.00 | 0.00 | 0.00 | 84 | 1014.3 |
| 20260507153603 | 65 | 4 | 5.2 | 11.3 | 0.00 | 0.00 | 0.00 | 84 | 1014.3 |
| 20260507153503 | 65 | 1 | 5.2 | 11.3 | 0.00 | 0.00 | 0.00 | 84 | 1014.3 |
| 20260507153403 | 65 | 0 | 5.2 | 11.3 | 0.00 | 0.00 | 0.00 | 84 | 1014.3 |
| 20260507153303 | 65 | 0 | 5.2 | 11.3 | 0.00 | 0.00 | 0.00 | 84 | 1014.3 |
| 20260507153204 | 65 | 0 | 5.2 | 11.3 | 0.00 | 0.00 | 0.00 | 85 | 1014.3 |
| 20260507153102 | 65 | 4 | 6.1 | 11.3 | 0.00 | 0.00 | 0.00 | 85 | 1014.4 |
| 20260507153004 | 65 | 3 | 6.1 | 11.3 | 0.00 | 0.00 | 0.00 | 85 | 1014.3 |
| 20260507152901 | 65 | 4 | 7.0 | 11.3 | 0.00 | 0.00 | 0.00 | 85 | 1014.3 |
| 20260507152801 | 65 | 1 | 7.0 | 11.3 | 0.00 | 0.00 | 0.00 | 86 | 1014.3 |
| 20260507152703 | 64 | 0 | 6.1 | 11.3 | 0.00 | 0.00 | 0.00 | 86 | 1014.4 |
| 20260507152602 | 64 | 4 | 5.2 | 11.3 | 0.00 | 0.00 | 0.00 | 86 | 1014.4 |
| 20260507152502 | 64 | 6 | 6.1 | 11.3 | 0.00 | 0.00 | 0.00 | 86 | 1014.4 |
| 20260507152404 | 64 | 6 | 5.2 | 11.3 | 0.00 | 0.00 | 0.00 | 86 | 1014.4 |
| 20260507152305 | 64 | 6 | 5.2 | 11.3 | 0.00 | 0.00 | 0.00 | 86 | 1014.4 |
| 20260507152202 | 64 | 6 | 5.2 | 11.3 | 0.00 | 0.00 | 0.00 | 86 | 1014.4 |
| 20260507152102 | 64 | 1 | 6.1 | 11.3 | 0.00 | 0.00 | 0.00 | 86 | 1014.4 |
| 20260507152004 | 64 | 6 | 7.8 | 13.0 | 0.00 | 0.00 | 0.00 | 86 | 1014.4 |
| 20260507151903 | 64 | 3 | 7.8 | 13.0 | 0.00 | 0.00 | 0.00 | 86 | 1014.3 |
| 20260507151802 | 64 | 1 | 7.0 | 13.0 | 0.00 | 0.00 | 0.00 | 86 | 1014.3 |
| 20260507151704 | 64 | 3 | 6.1 | 13.0 | 0.00 | 0.00 | 0.00 | 86 | 1014.3 |
| 20260507151602 | 64 | 3 | 7.0 | 13.0 | 0.00 | 0.00 | 0.00 | 86 | 1014.3 |
| 20260507151502 | 64 | 0 | 7.0 | 13.0 | 0.00 | 0.00 | 0.00 | 86 | 1014.3 |
| 20260507151402 | 64 | 0 | 6.1 | 13.0 | 0.00 | 0.00 | 0.00 | 86 | 1014.2 |
| 20260507151302 | 64 | 1 | 7.0 | 13.0 | 0.00 | 0.00 | 0.00 | 86 | 1014.3 |
| 20260507151202 | 64 | 1 | 7.8 | 13.0 | 0.00 | 0.00 | 0.00 | 86 | 1014.2 |
| 20260507151102 | 64 | 0 | 7.0 | 13.0 | 0.00 | 0.00 | 0.00 | 87 | 1014.2 |
| 20260507151004 | 64 | 0 | 4.3 | 13.0 | 0.00 | 0.00 | 0.00 | 87 | 1014.2 |
| 20260507150902 | 64 | 7 | 5.2 | 13.0 | 0.00 | 0.00 | 0.00 | 87 | 1014.2 |
| 20260507150802 | 64 | 1 | 5.2 | 13.0 | 0.00 | 0.00 | 0.00 | 87 | 1014.1 |
| 20260507150703 | 63 | 4 | 5.2 | 13.0 | 0.00 | 0.00 | 0.00 | 87 | 1014.1 |
| 20260507150603 | 63 | 6 | 5.2 | 13.0 | 0.00 | 0.00 | 0.00 | 87 | 1014.1 |
| 20260507150503 | 63 | 6 | 7.8 | 13.0 | 0.00 | 0.00 | 0.00 | 87 | 1014.1 |
| 20260507150402 | 63 | 3 | 9.6 | 13.0 | 0.00 | 0.00 | 0.00 | 87 | 1014.1 |
| 20260507150303 | 63 | 3 | 7.0 | 13.0 | 0.00 | 0.00 | 0.00 | 87 | 1014.3 |
| 20260507150202 | 63 | 1 | 6.1 | 12.2 | 0.00 | 0.00 | 0.00 | 87 | 1014.2 |
| 20260507150005 | 63 | 4 | 6.1 | 12.2 | 0.00 | 0.00 | 0.00 | 87 | 1014.3 |
| 20260507145903 | 63 | 3 | 7.0 | 12.2 | 0.00 | 0.00 | 0.00 | 87 | 1014.3 |
| 20260507145802 | 63 | 0 | 7.8 | 12.2 | 0.00 | 0.00 | 0.00 | 87 | 1014.3 |
| 20260507145703 | 63 | 4 | 7.8 | 12.2 | 0.00 | 0.00 | 0.00 | 87 | 1014.3 |
| 20260507145603 | 63 | 52 | 6.1 | 12.2 | 0.00 | 0.00 | 0.00 | 87 | 1014.2 |
| 20260507145503 | 63 | 0 | 7.8 | 12.2 | 0.00 | 0.00 | 0.00 | 87 | 1014.2 |
| 20260507145402 | 63 | 52 | 7.8 | 12.2 | 0.00 | 0.00 | 0.00 | 87 | 1014.3 |
| 20260507145306 | 63 | 48 | 5.2 | 12.2 | 0.00 | 0.00 | 0.00 | 87 | 1014.3 |
| 20260507145203 | 63 | 52 | 4.3 | 12.2 | 0.00 | 0.00 | 0.00 | 87 | 1014.3 |
| 20260507145103 | 63 | 0 | 5.2 | 12.2 | 0.00 | 0.00 | 0.00 | 87 | 1014.2 |
| 20260507145003 | 63 | 52 | 6.1 | 12.2 | 0.00 | 0.00 | 0.00 | 87 | 1014.2 |
| 20260507144903 | 63 | 52 | 5.2 | 11.3 | 0.00 | 0.00 | 0.00 | 87 | 1014.1 |
| 20260507144803 | 63 | 3 | 6.1 | 11.3 | 0.00 | 0.00 | 0.00 | 87 | 1014.1 |
| 20260507144702 | 63 | 1 | 7.0 | 11.3 | 0.00 | 0.00 | 0.00 | 87 | 1014.0 |
| 20260507144603 | 63 | 0 | 6.1 | 13.9 | 0.00 | 0.00 | 0.00 | 87 | 1014.1 |
| 20260507144502 | 63 | 0 | 6.1 | 13.9 | 0.00 | 0.00 | 0.00 | 87 | 1014.1 |
| 20260507144402 | 63 | 4 | 5.2 | 13.9 | 0.00 | 0.00 | 0.00 | 87 | 1014.1 |
| 20260507144302 | 63 | 6 | 6.1 | 13.9 | 0.00 | 0.00 | 0.00 | 87 | 1014.1 |
| 20260507144203 | 63 | 1 | 6.1 | 13.9 | 0.00 | 0.00 | 0.00 | 87 | 1014.1 |
| 20260507144103 | 63 | 6 | 7.0 | 13.9 | 0.00 | 0.00 | 0.00 | 87 | 1014.1 |
| 20260507144002 | 63 | 6 | 7.8 | 13.9 | 0.00 | 0.00 | 0.00 | 87 | 1014.1 |
| 20260507143904 | 63 | 3 | 6.1 | 13.9 | 0.00 | 0.00 | 0.00 | 87 | 1014.0 |
| 20260507143803 | 63 | 4 | 7.8 | 13.9 | 0.00 | 0.00 | 0.00 | 87 | 1014.0 |
| 20260507143703 | 63 | 6 | 7.8 | 13.9 | 0.00 | 0.00 | 0.00 | 87 | 1014.0 |
| 20260507143603 | 63 | 6 | 6.1 | 13.9 | 0.00 | 0.00 | 0.00 | 87 | 1013.9 |
| 20260507143504 | 63 | 7 | 6.1 | 13.0 | 0.00 | 0.00 | 0.00 | 87 | 1013.9 |
| 20260507143402 | 63 | 6 | 3.5 | 13.0 | 0.00 | 0.00 | 0.00 | 88 | 1013.9 |
| 20260507143303 | 63 | 4 | 3.5 | 13.0 | 0.00 | 0.00 | 0.00 | 88 | 1013.9 |
| 20260507143202 | 63 | 1 | 4.3 | 13.0 | 0.00 | 0.00 | 0.00 | 87 | 1013.8 |
| 20260507143102 | 63 | 1 | 5.2 | 13.0 | 0.00 | 0.00 | 0.00 | 88 | 1013.9 |
| 20260507143001 | 63 | 3 | 6.1 | 13.0 | 0.00 | 0.00 | 0.00 | 88 | 1013.9 |
| 20260507142901 | 63 | 3 | 7.8 | 13.0 | 0.00 | 0.00 | 0.00 | 88 | 1013.9 |
| 20260507142804 | 63 | 10 | 7.8 | 13.0 | 0.00 | 0.00 | 0.00 | 88 | 1013.9 |
| 20260507142702 | 63 | 4 | 7.0 | 13.0 | 0.00 | 0.00 | 0.00 | 88 | 1013.9 |
| 20260507142603 | 63 | 7 | 7.0 | 13.0 | 0.00 | 0.00 | 0.00 | 88 | 1013.9 |
| 20260507142504 | 63 | 3 | 7.8 | 13.0 | 0.00 | 0.00 | 0.00 | 88 | 1013.8 |
| 20260507142402 | 63 | 0 | 7.0 | 13.0 | 0.00 | 0.00 | 0.00 | 88 | 1013.9 |
| 20260507142306 | 63 | 7 | 7.0 | 13.0 | 0.00 | 0.00 | 0.00 | 88 | 1013.8 |
| 20260507142203 | 63 | 6 | 7.0 | 13.0 | 0.00 | 0.00 | 0.00 | 88 | 1013.9 |
| 20260507142103 | 63 | 52 | 7.0 | 13.0 | 0.00 | 0.00 | 0.00 | 88 | 1013.9 |
| 20260507142005 | 63 | 1 | 4.3 | 13.0 | 0.00 | 0.00 | 0.00 | 88 | 1013.8 |
| 20260507141903 | 63 | 7 | 5.2 | 13.0 | 0.00 | 0.00 | 0.00 | 88 | 1013.8 |
| 20260507141803 | 63 | 7 | 5.2 | 13.0 | 0.00 | 0.00 | 0.00 | 88 | 1013.8 |
| 20260507141703 | 63 | 7 | 5.2 | 13.0 | 0.00 | 0.00 | 0.00 | 88 | 1013.8 |
| 20260507141602 | 63 | 3 | 4.3 | 10.4 | 0.00 | 0.00 | 0.00 | 88 | 1013.9 |
| 20260507141505 | 63 | 6 | 5.2 | 12.2 | 0.00 | 0.00 | 0.00 | 88 | 1013.9 |
| 20260507141402 | 63 | 3 | 5.2 | 12.2 | 0.00 | 0.00 | 0.00 | 88 | 1014.0 |
| 20260507141302 | 63 | 55 | 4.3 | 12.2 | 0.00 | 0.00 | 0.00 | 88 | 1013.9 |
| 20260507141203 | 63 | 7 | 6.1 | 12.2 | 0.00 | 0.00 | 0.00 | 88 | 1013.9 |
| 20260507141103 | 63 | 54 | 7.0 | 12.2 | 0.00 | 0.00 | 0.00 | 88 | 1013.8 |
| 20260507141006 | 63 | 0 | 7.0 | 12.2 | 0.00 | 0.00 | 0.00 | 88 | 1013.9 |
| 20260507140902 | 63 | 55 | 6.1 | 12.2 | 0.00 | 0.00 | 0.00 | 88 | 1013.8 |
| 20260507140803 | 63 | 52 | 5.2 | 12.2 | 0.00 | 0.00 | 0.00 | 88 | 1013.9 |
| 20260507140702 | 63 | 0 | 6.1 | 12.2 | 0.00 | 0.00 | 0.00 | 88 | 1013.9 |
| 20260507140604 | 63 | 0 | 7.8 | 12.2 | 0.00 | 0.00 | 0.00 | 88 | 1013.8 |
| 20260507140504 | 63 | 0 | 6.1 | 12.2 | 0.00 | 0.00 | 0.00 | 88 | 1013.7 |
| 20260507140403 | 63 | 0 | 6.1 | 12.2 | 0.00 | 0.00 | 0.00 | 88 | 1013.8 |
| 20260507140301 | 63 | 1 | 7.0 | 12.2 | 0.00 | 0.00 | 0.00 | 88 | 1013.8 |
| 20260507140202 | 63 | 6 | 7.0 | 12.2 | 0.00 | 0.00 | 0.00 | 88 | 1013.8 |
| 20260507140105 | 63 | 4 | 6.1 | 12.2 | 0.00 | 0.00 | 0.00 | 88 | 1013.8 |
| 20260507140004 | 63 | 3 | 6.1 | 11.3 | 0.00 | 0.00 | 0.00 | 88 | 1013.9 |
| 20260507135903 | 64 | 3 | 6.1 | 11.3 | 0.00 | 0.00 | 0.00 | 88 | 1013.9 |
| 20260507135803 | 64 | 7 | 6.1 | 11.3 | 0.00 | 0.00 | 0.00 | 88 | 1014.0 |
| 20260507135703 | 64 | 4 | 6.1 | 11.3 | 0.00 | 0.00 | 0.00 | 88 | 1014.0 |
| 20260507135602 | 64 | 4 | 4.3 | 9.6 | 0.00 | 0.00 | 0.00 | 88 | 1014.0 |
| 20260507135503 | 64 | 54 | 3.5 | 9.6 | 0.00 | 0.00 | 0.00 | 88 | 1014.1 |
| 20260507135402 | 64 | 4 | 3.5 | 9.6 | 0.00 | 0.00 | 0.00 | 88 | 1014.0 |
| 20260507135306 | 64 | 3 | 3.5 | 9.6 | 0.00 | 0.00 | 0.00 | 88 | 1014.0 |
| 20260507135202 | 64 | 3 | 3.5 | 10.4 | 0.00 | 0.00 | 0.00 | 88 | 1014.0 |
| 20260507135102 | 64 | 54 | 4.3 | 10.4 | 0.00 | 0.00 | 0.00 | 88 | 1014.1 |
| 20260507135001 | 64 | 0 | 5.2 | 13.0 | 0.00 | 0.00 | 0.00 | 88 | 1014.1 |
| 20260507134901 | 64 | 1 | 5.2 | 13.0 | 0.00 | 0.00 | 0.00 | 88 | 1014.0 |
| 20260507134804 | 63 | 6 | 5.2 | 13.0 | 0.00 | 0.00 | 0.00 | 88 | 1014.1 |
| 20260507134702 | 63 | 3 | 5.2 | 13.0 | 0.00 | 0.00 | 0.00 | 88 | 1014.1 |
| 20260507134602 | 63 | 1 | 4.3 | 13.0 | 0.00 | 0.00 | 0.00 | 88 | 1014.1 |
| 20260507134504 | 63 | 0 | 5.2 | 13.0 | 0.00 | 0.00 | 0.00 | 89 | 1014.1 |
| 20260507134404 | 63 | 0 | 6.1 | 13.0 | 0.00 | 0.00 | 0.00 | 88 | 1014.2 |
| 20260507134302 | 63 | 0 | 7.0 | 13.0 | 0.00 | 0.00 | 0.00 | 88 | 1014.1 |
| 20260507134202 | 63 | 0 | 7.0 | 13.0 | 0.00 | 0.00 | 0.00 | 88 | 1014.3 |
| 20260507134102 | 63 | 1 | 7.8 | 13.0 | 0.00 | 0.00 | 0.00 | 88 | 1014.3 |
| 20260507134003 | 63 | 55 | 7.0 | 13.0 | 0.00 | 0.00 | 0.00 | 88 | 1014.3 |
| 20260507133903 | 63 | 3 | 7.0 | 13.0 | 0.00 | 0.00 | 0.00 | 88 | 1014.2 |
| 20260507133804 | 63 | 3 | 7.8 | 13.0 | 0.00 | 0.00 | 0.00 | 88 | 1014.3 |
| 20260507133702 | 63 | 0 | 7.8 | 13.0 | 0.00 | 0.00 | 0.00 | 88 | 1014.3 |
| 20260507133603 | 63 | 0 | 4.3 | 13.0 | 0.00 | 0.00 | 0.00 | 88 | 1014.2 |
| 20260507133502 | 63 | 1 | 3.5 | 13.0 | 0.00 | 0.00 | 0.00 | 88 | 1014.2 |
| 20260507133404 | 63 | 0 | 4.3 | 13.0 | 0.00 | 0.00 | 0.00 | 89 | 1014.2 |
| 20260507133302 | 63 | 0 | 4.3 | 13.0 | 0.00 | 0.00 | 0.00 | 89 | 1014.1 |
| 20260507133202 | 63 | 4 | 5.2 | 13.0 | 0.00 | 0.00 | 0.00 | 89 | 1014.1 |
| 20260507133102 | 63 | 1 | 7.0 | 13.0 | 0.00 | 0.00 | 0.00 | 88 | 1014.1 |
| 20260507133003 | 63 | 3 | 6.1 | 13.0 | 0.00 | 0.00 | 0.00 | 89 | 1014.0 |
| 20260507132901 | 63 | 0 | 6.1 | 13.0 | 0.00 | 0.00 | 0.00 | 89 | 1014.1 |
| 20260507132802 | 63 | 0 | 7.8 | 13.0 | 0.00 | 0.00 | 0.00 | 89 | 1014.1 |
| 20260507132703 | 63 | 4 | 7.8 | 13.0 | 0.00 | 0.00 | 0.00 | 89 | 1014.2 |
| 20260507132602 | 63 | 6 | 7.0 | 11.3 | 0.00 | 0.00 | 0.00 | 89 | 1014.2 |
| 20260507132502 | 63 | 3 | 7.0 | 11.3 | 0.00 | 0.00 | 0.00 | 89 | 1014.2 |
| 20260507132403 | 63 | 8 | 7.0 | 11.3 | 0.00 | 0.00 | 0.00 | 88 | 1014.3 |
| 20260507132306 | 63 | 7 | 6.1 | 11.3 | 0.00 | 0.00 | 0.00 | 89 | 1014.3 |
| 20260507132203 | 63 | 1 | 4.3 | 11.3 | 0.00 | 0.00 | 0.00 | 89 | 1014.4 |
| 20260507132104 | 63 | 0 | 4.3 | 11.3 | 0.00 | 0.00 | 0.00 | 89 | 1014.4 |
| 20260507132003 | 63 | 0 | 6.1 | 11.3 | 0.00 | 0.00 | 0.00 | 89 | 1014.5 |
| 20260507131903 | 63 | 4 | 7.0 | 11.3 | 0.00 | 0.00 | 0.00 | 89 | 1014.4 |
| 20260507131803 | 63 | 0 | 6.1 | 9.6 | 0.00 | 0.00 | 0.00 | 89 | 1014.5 |
| 20260507131704 | 63 | 0 | 6.1 | 9.6 | 0.00 | 0.00 | 0.00 | 89 | 1014.5 |
| 20260507131606 | 63 | 0 | 5.2 | 8.7 | 0.00 | 0.00 | 0.00 | 89 | 1014.4 |
| 20260507131503 | 63 | 0 | 3.5 | 9.6 | 0.00 | 0.00 | 0.00 | 89 | 1014.3 |
| 20260507131403 | 63 | 0 | 2.6 | 9.6 | 0.00 | 0.00 | 0.00 | 89 | 1014.2 |
| 20260507131302 | 63 | 4 | 3.5 | 11.3 | 0.00 | 0.00 | 0.00 | 89 | 1014.3 |
| 20260507131203 | 63 | 1 | 3.5 | 11.3 | 0.00 | 0.00 | 0.00 | 89 | 1014.2 |
| 20260507131103 | 63 | 0 | 3.5 | 11.3 | 0.00 | 0.00 | 0.00 | 89 | 1014.2 |
| 20260507131004 | 63 | 4 | 3.5 | 11.3 | 0.00 | 0.00 | 0.00 | 89 | 1014.2 |
| 20260507130902 | 63 | 52 | 4.3 | 11.3 | 0.00 | 0.00 | 0.00 | 89 | 1014.3 |
| 20260507130802 | 63 | 0 | 5.2 | 11.3 | 0.00 | 0.00 | 0.00 | 89 | 1014.2 |
| 20260507130704 | 63 | 52 | 6.1 | 12.2 | 0.00 | 0.00 | 0.00 | 89 | 1014.2 |
| 20260507130602 | 63 | 52 | 7.0 | 12.2 | 0.00 | 0.00 | 0.00 | 89 | 1014.3 |
| 20260507130504 | 63 | 0 | 7.0 | 12.2 | 0.00 | 0.00 | 0.00 | 89 | 1014.1 |
| 20260507130403 | 63 | 0 | 6.1 | 12.2 | 0.00 | 0.00 | 0.00 | 89 | 1014.2 |
| 20260507130303 | 63 | 1 | 6.1 | 12.2 | 0.00 | 0.00 | 0.00 | 89 | 1014.2 |
| 20260507130202 | 63 | 4 | 7.0 | 12.2 | 0.00 | 0.00 | 0.00 | 89 | 1014.2 |
| 20260507130103 | 63 | 3 | 6.1 | 12.2 | 0.00 | 0.00 | 0.00 | 89 | 1014.3 |
| 20260507125955 | 63 | 0 | 5.2 | 12.2 | 0.00 | 0.00 | 0.00 | 88 | 1014.3 |
| 20260507125851 | 63 | 0 | 6.1 | 12.2 | 0.00 | 0.00 | 0.00 | 88 | 1014.3 |
| 20260507125750 | 63 | 49 | 6.1 | 12.2 | 0.00 | 0.00 | 0.00 | 89 | 1014.3 |
| 20260507125648 | 63 | 51 | 6.1 | 12.2 | 0.00 | 0.00 | 0.00 | 88 | 1014.3 |
| 20260507125545 | 63 | 4 | 4.3 | 12.2 | 0.00 | 0.00 | 0.00 | 88 | 1014.3 |
| 20260507125445 | 63 | 49 | 3.5 | 12.2 | 0.00 | 0.00 | 0.00 | 89 | 1014.3 |
| 20260507125344 | 63 | 1 | 3.5 | 12.2 | 0.00 | 0.00 | 0.00 | 89 | 1014.2 |
| 20260507125242 | 63 | 48 | 5.2 | 12.2 | 0.00 | 0.00 | 0.00 | 89 | 1014.1 |
| 20260507125140 | 63 | 49 | 6.1 | 12.2 | 0.00 | 0.00 | 0.00 | 88 | 1014.0 |
| 20260507125038 | 63 | 51 | 6.1 | 12.2 | 0.00 | 0.00 | 0.00 | 88 | 1013.9 |
| 20260507124939 | 63 | 3 | 7.0 | 12.2 | 0.00 | 0.00 | 0.00 | 88 | 1013.8 |
| 20260507124837 | 64 | 3 | 7.8 | 12.2 | 0.00 | 0.00 | 0.00 | 88 | 1013.7 |
| 20260507124735 | 64 | 0 | 7.0 | 11.3 | 0.00 | 0.00 | 0.00 | 89 | 1013.7 |
| 20260507124632 | 64 | 51 | 6.1 | 11.3 | 0.00 | 0.00 | 0.00 | 89 | 1013.6 |
| 20260507124532 | 64 | 49 | 4.3 | 9.6 | 0.00 | 0.00 | 0.00 | 89 | 1013.6 |
| 20260507124431 | 64 | 51 | 4.3 | 9.6 | 0.00 | 0.00 | 0.00 | 89 | 1013.5 |
| 20260507124332 | 64 | 49 | 4.3 | 9.6 | 0.00 | 0.00 | 0.00 | 89 | 1013.6 |
| 20260507124232 | 64 | 1 | 3.5 | 9.6 | 0.00 | 0.00 | 0.00 | 89 | 1013.5 |
| 20260507124131 | 64 | 51 | 4.3 | 9.6 | 0.00 | 0.00 | 0.00 | 89 | 1013.5 |
| 20260507124031 | 64 | 49 | 5.2 | 9.6 | 0.00 | 0.00 | 0.00 | 89 | 1013.6 |
| 20260507123931 | 64 | 47 | 5.2 | 10.4 | 0.00 | 0.00 | 0.00 | 89 | 1013.5 |
| 20260507123831 | 64 | 49 | 6.1 | 10.4 | 0.00 | 0.00 | 0.00 | 89 | 1013.5 |
| 20260507123731 | 64 | 51 | 6.1 | 10.4 | 0.00 | 0.00 | 0.00 | 89 | 1013.4 |
| 20260507123631 | 64 | 3 | 6.1 | 10.4 | 0.00 | 0.00 | 0.00 | 89 | 1013.5 |
| 20260507123532 | 64 | 0 | 5.2 | 10.4 | 0.00 | 0.00 | 0.00 | 89 | 1013.5 |
| 20260507123431 | 63 | 3 | 5.2 | 10.4 | 0.00 | 0.00 | 0.00 | 89 | 1013.5 |
| 20260507123326 | 64 | 0 | 5.2 | 10.4 | 0.00 | 0.00 | 0.00 | 89 | 1013.4 |
| 20260507123224 | 64 | 0 | 5.2 | 10.4 | 0.00 | 0.00 | 0.00 | 89 | 1013.5 |
| 20260507123122 | 64 | 0 | 5.2 | 10.4 | 0.00 | 0.00 | 0.00 | 89 | 1013.5 |
| 20260507123022 | 64 | 48 | 6.1 | 10.4 | 0.00 | 0.00 | 0.00 | 89 | 1013.6 |
| 20260507122918 | 64 | 48 | 6.1 | 9.6 | 0.00 | 0.00 | 0.00 | 89 | 1013.6 |
| 20260507122816 | 64 | 47 | 5.2 | 8.7 | 0.00 | 0.00 | 0.00 | 89 | 1013.6 |
| 20260507122716 | 64 | 44 | 4.3 | 8.7 | 0.00 | 0.00 | 0.00 | 89 | 1013.5 |
| 20260507122613 | 64 | 0 | 5.2 | 8.7 | 0.00 | 0.00 | 0.00 | 89 | 1013.4 |
| 20260507122511 | 64 | 48 | 5.2 | 8.7 | 0.00 | 0.00 | 0.00 | 89 | 1013.2 |
| 20260507122410 | 64 | 0 | 5.2 | 8.7 | 0.00 | 0.00 | 0.00 | 89 | 1013.2 |
| 20260507122309 | 64 | 0 | 4.3 | 8.7 | 0.00 | 0.00 | 0.00 | 89 | 1013.1 |
| 20260507122207 | 64 | 4 | 5.2 | 8.7 | 0.00 | 0.00 | 0.00 | 89 | 1013.1 |
| 20260507122107 | 64 | 3 | 7.0 | 8.7 | 0.00 | 0.00 | 0.00 | 89 | 1013.1 |
| 20260507122007 | 64 | 0 | 5.2 | 9.6 | 0.00 | 0.00 | 0.00 | 89 | 1013.1 |
| 20260507121907 | 64 | 4 | 4.3 | 11.3 | 0.00 | 0.00 | 0.00 | 89 | 1013.2 |
| 20260507121807 | 64 | 48 | 3.5 | 11.3 | 0.00 | 0.00 | 0.00 | 89 | 1013.2 |
| 20260507121706 | 64 | 0 | 3.5 | 11.3 | 0.00 | 0.00 | 0.00 | 89 | 1013.3 |
| 20260507121606 | 64 | 49 | 4.3 | 13.0 | 0.00 | 0.00 | 0.00 | 89 | 1013.3 |
| 20260507121507 | 64 | 48 | 4.3 | 13.0 | 0.00 | 0.00 | 0.00 | 89 | 1013.4 |
| 20260507121406 | 64 | 0 | 3.5 | 13.0 | 0.00 | 0.00 | 0.00 | 89 | 1013.4 |
| 20260507121308 | 64 | 0 | 3.5 | 13.0 | 0.00 | 0.00 | 0.00 | 89 | 1013.3 |
| 20260507121207 | 64 | 0 | 4.3 | 13.0 | 0.00 | 0.00 | 0.00 | 89 | 1013.3 |
| 20260507121106 | 64 | 49 | 6.1 | 13.0 | 0.00 | 0.00 | 0.00 | 89 | 1013.3 |
| 20260507121007 | 64 | 0 | 6.1 | 13.0 | 0.00 | 0.00 | 0.00 | 89 | 1013.1 |
| 20260507120908 | 64 | 1 | 7.0 | 13.0 | 0.00 | 0.00 | 0.00 | 89 | 1013.1 |
| 20260507120808 | 64 | 0 | 7.8 | 13.0 | 0.00 | 0.00 | 0.00 | 89 | 1013.0 |
| 20260507120707 | 64 | 49 | 6.1 | 13.0 | 0.00 | 0.00 | 0.00 | 89 | 1013.0 |
| 20260507120607 | 64 | 7 | 5.2 | 11.3 | 0.00 | 0.00 | 0.00 | 89 | 1013.0 |
| 20260507120508 | 64 | 6 | 6.1 | 11.3 | 0.00 | 0.00 | 0.00 | 89 | 1013.0 |
| 20260507120406 | 65 | 3 | 6.1 | 11.3 | 0.00 | 0.00 | 0.00 | 89 | 1013.0 |
| 20260507120307 | 65 | 51 | 5.2 | 11.3 | 0.00 | 0.00 | 0.00 | 89 | 1013.1 |
| 20260507120207 | 65 | 10 | 5.2 | 11.3 | 0.00 | 0.00 | 0.00 | 89 | 1013.1 |
| 20260507120108 | 65 | 3 | 4.3 | 11.3 | 0.00 | 0.00 | 0.00 | 89 | 1013.1 |
| 20260507120006 | 65 | 49 | 3.5 | 11.3 | 0.00 | 0.00 | 0.00 | 89 | 1013.1 |
| 20260507115906 | 65 | 48 | 4.3 | 11.3 | 0.00 | 0.00 | 0.00 | 89 | 1013.1 |
| 20260507115808 | 65 | 48 | 6.1 | 11.3 | 0.00 | 0.00 | 0.00 | 89 | 1013.0 |
| 20260507115707 | 65 | 48 | 6.1 | 11.3 | 0.00 | 0.00 | 0.00 | 89 | 1013.1 |
| 20260507115606 | 65 | 51 | 6.1 | 10.4 | 0.00 | 0.00 | 0.00 | 89 | 1013.1 |
| 20260507115506 | 65 | 49 | 5.2 | 10.4 | 0.00 | 0.00 | 0.00 | 89 | 1013.0 |
| 20260507115407 | 65 | 48 | 4.3 | 10.4 | 0.00 | 0.00 | 0.00 | 89 | 1012.9 |
| 20260507115307 | 65 | 0 | 4.3 | 10.4 | 0.00 | 0.00 | 0.00 | 89 | 1012.9 |
| 20260507115206 | 65 | 1 | 4.3 | 10.4 | 0.00 | 0.00 | 0.00 | 89 | 1012.8 |
| 20260507115107 | 65 | 48 | 4.3 | 10.4 | 0.00 | 0.00 | 0.00 | 89 | 1012.8 |
| 20260507115005 | 65 | 0 | 5.2 | 10.4 | 0.00 | 0.00 | 0.00 | 89 | 1012.8 |
| 20260507114906 | 65 | 0 | 6.1 | 10.4 | 0.00 | 0.00 | 0.00 | 89 | 1012.7 |
| 20260507114808 | 65 | 48 | 5.2 | 10.4 | 0.00 | 0.00 | 0.00 | 89 | 1012.7 |
| 20260507114706 | 65 | 1 | 3.5 | 11.3 | 0.00 | 0.00 | 0.00 | 89 | 1012.7 |
| 20260507114606 | 65 | 51 | 3.5 | 11.3 | 0.00 | 0.00 | 0.00 | 89 | 1012.7 |
| 20260507114505 | 65 | 0 | 3.5 | 11.3 | 0.00 | 0.00 | 0.00 | 89 | 1012.5 |
| 20260507114408 | 65 | 0 | 5.2 | 11.3 | 0.00 | 0.00 | 0.00 | 89 | 1012.5 |
| 20260507114306 | 65 | 1 | 5.2 | 11.3 | 0.00 | 0.00 | 0.00 | 89 | 1012.4 |
| 20260507114205 | 65 | 3 | 5.2 | 11.3 | 0.00 | 0.00 | 0.00 | 89 | 1012.5 |
| 20260507114107 | 65 | 1 | 4.3 | 11.3 | 0.00 | 0.00 | 0.00 | 89 | 1012.5 |
| 20260507114007 | 65 | 49 | 5.2 | 11.3 | 0.00 | 0.00 | 0.00 | 89 | 1012.6 |
| 20260507113905 | 65 | 52 | 6.1 | 11.3 | 0.00 | 0.00 | 0.00 | 89 | 1012.6 |
| 20260507113805 | 65 | 1 | 7.0 | 11.3 | 0.00 | 0.00 | 0.00 | 89 | 1012.4 |
| 20260507113706 | 65 | 4 | 5.2 | 8.7 | 0.00 | 0.00 | 0.00 | 89 | 1012.4 |
| 20260507113605 | 65 | 3 | 4.3 | 8.7 | 0.00 | 0.00 | 0.00 | 89 | 1012.3 |
| 20260507113505 | 65 | 0 | 4.3 | 9.6 | 0.00 | 0.00 | 0.00 | 89 | 1012.3 |
| 20260507113405 | 65 | 1 | 4.3 | 9.6 | 0.00 | 0.00 | 0.00 | 89 | 1012.3 |
| 20260507113306 | 65 | 0 | 3.5 | 9.6 | 0.00 | 0.00 | 0.00 | 89 | 1012.4 |
| 20260507113205 | 65 | 0 | 2.6 | 9.6 | 0.00 | 0.00 | 0.00 | 89 | 1012.4 |
| 20260507113105 | 65 | 4 | 3.5 | 9.6 | 0.00 | 0.00 | 0.00 | 89 | 1012.3 |
| 20260507113006 | 65 | 3 | 5.2 | 9.6 | 0.00 | 0.00 | 0.00 | 89 | 1012.4 |
| 20260507112905 | 65 | 1 | 5.2 | 9.6 | 0.00 | 0.00 | 0.00 | 89 | 1012.4 |
| 20260507112806 | 65 | 1 | 4.3 | 9.6 | 0.00 | 0.00 | 0.00 | 89 | 1012.4 |
| 20260507112705 | 65 | 51 | 5.2 | 9.6 | 0.00 | 0.00 | 0.00 | 89 | 1012.4 |
| 20260507112605 | 65 | 0 | 6.1 | 9.6 | 0.00 | 0.00 | 0.00 | 89 | 1012.4 |
| 20260507112505 | 65 | 3 | 5.2 | 9.6 | 0.00 | 0.00 | 0.00 | 89 | 1012.3 |
| 20260507112405 | 65 | 47 | 4.3 | 8.7 | 0.00 | 0.00 | 0.00 | 89 | 1012.2 |
| 20260507112308 | 65 | 4 | 4.3 | 7.8 | 0.00 | 0.00 | 0.00 | 90 | 1012.2 |
| 20260507112206 | 65 | 0 | 4.3 | 7.8 | 0.00 | 0.00 | 0.00 | 90 | 1012.1 |
| 20260507112106 | 65 | 0 | 3.5 | 7.8 | 0.00 | 0.00 | 0.00 | 90 | 1012.0 |
| 20260507112006 | 65 | 51 | 3.5 | 7.8 | 0.00 | 0.00 | 0.00 | 90 | 1012.1 |
| 20260507111905 | 65 | 0 | 3.5 | 7.8 | 0.00 | 0.00 | 0.00 | 90 | 1012.1 |
| 20260507111805 | 65 | 0 | 3.5 | 7.8 | 0.00 | 0.00 | 0.00 | 90 | 1012.2 |
| 20260507111705 | 65 | 0 | 3.5 | 7.8 | 0.00 | 0.00 | 0.00 | 90 | 1012.2 |
| 20260507111606 | 65 | 0 | 3.5 | 7.8 | 0.00 | 0.00 | 0.00 | 90 | 1012.2 |
| 20260507111506 | 65 | 0 | 3.5 | 7.8 | 0.00 | 0.00 | 0.00 | 90 | 1012.2 |
| 20260507111405 | 65 | 1 | 4.3 | 7.8 | 0.00 | 0.00 | 0.00 | 90 | 1012.1 |
| 20260507111306 | 65 | 1 | 4.3 | 7.8 | 0.00 | 0.00 | 0.00 | 90 | 1012.1 |
| 20260507111205 | 65 | 3 | 3.5 | 7.8 | 0.00 | 0.00 | 0.00 | 90 | 1012.0 |
| 20260507111105 | 65 | 0 | 3.5 | 6.1 | 0.00 | 0.00 | 0.00 | 90 | 1012.0 |
| 20260507111004 | 66 | 3 | 4.3 | 6.1 | 0.00 | 0.00 | 0.00 | 90 | 1011.9 |
| 20260507110906 | 66 | 4 | 3.5 | 6.1 | 0.00 | 0.00 | 0.00 | 90 | 1011.8 |
| 20260507110805 | 66 | 3 | 2.6 | 4.3 | 0.00 | 0.00 | 0.00 | 90 | 1011.8 |
| 20260507110705 | 66 | 6 | 2.6 | 4.3 | 0.00 | 0.00 | 0.00 | 90 | 1011.9 |
| 20260507110606 | 66 | 49 | 2.6 | 4.3 | 0.00 | 0.00 | 0.00 | 90 | 1011.9 |
| 20260507110504 | 66 | 4 | 3.5 | 4.3 | 0.00 | 0.00 | 0.00 | 90 | 1011.9 |
| 20260507110406 | 66 | 3 | 2.6 | 4.3 | 0.00 | 0.00 | 0.00 | 90 | 1012.0 |
| 20260507110306 | 66 | 0 | 1.7 | 4.3 | 0.00 | 0.00 | 0.00 | 90 | 1012.0 |
| 20260507110207 | 66 | 52 | 1.7 | 4.3 | 0.00 | 0.00 | 0.00 | 90 | 1012.0 |
| 20260507110105 | 66 | 0 | 1.7 | 4.3 | 0.00 | 0.00 | 0.00 | 90 | 1011.9 |
| 20260507110005 | 66 | 3 | 2.6 | 4.3 | 0.00 | 0.00 | 0.00 | 90 | 1011.9 |
| 20260507105905 | 66 | 1 | 2.6 | 4.3 | 0.00 | 0.00 | 0.00 | 90 | 1011.9 |
| 20260507105805 | 66 | 1 | 2.6 | 4.3 | 0.00 | 0.00 | 0.00 | 90 | 1011.9 |
| 20260507105705 | 66 | 1 | 2.6 | 4.3 | 0.00 | 0.00 | 0.00 | 90 | 1011.9 |
| 20260507105607 | 66 | 1 | 2.6 | 4.3 | 0.00 | 0.00 | 0.00 | 90 | 1012.0 |
| 20260507105506 | 66 | 4 | 2.6 | 4.3 | 0.00 | 0.00 | 0.00 | 90 | 1011.9 |
| 20260507105405 | 66 | 6 | 1.7 | 4.3 | 0.00 | 0.00 | 0.00 | 90 | 1012.0 |
| 20260507105306 | 66 | 3 | 0.9 | 4.3 | 0.00 | 0.00 | 0.00 | 90 | 1011.9 |
| 20260507105205 | 66 | 3 | 1.7 | 4.3 | 0.00 | 0.00 | 0.00 | 90 | 1012.0 |
| 20260507105104 | 66 | 3 | 1.7 | 4.3 | 0.00 | 0.00 | 0.00 | 90 | 1012.0 |
| 20260507105005 | 66 | 3 | 2.6 | 4.3 | 0.00 | 0.00 | 0.00 | 90 | 1011.9 |
| 20260507104905 | 66 | 3 | 2.6 | 5.2 | 0.00 | 0.00 | 0.00 | 90 | 1011.8 |
| 20260507104805 | 66 | 3 | 1.7 | 6.1 | 0.00 | 0.00 | 0.00 | 90 | 1011.8 |
| 20260507104704 | 66 | 4 | 2.6 | 6.1 | 0.00 | 0.00 | 0.00 | 90 | 1011.8 |
| 20260507104605 | 66 | 4 | 2.6 | 6.1 | 0.00 | 0.00 | 0.00 | 90 | 1011.9 |
| 20260507104506 | 66 | 0 | 1.7 | 6.1 | 0.00 | 0.00 | 0.00 | 90 | 1011.9 |
| 20260507104405 | 66 | 0 | 2.6 | 6.1 | 0.00 | 0.00 | 0.00 | 90 | 1012.0 |
| 20260507104306 | 66 | 6 | 3.5 | 6.1 | 0.00 | 0.00 | 0.00 | 90 | 1012.0 |
| 20260507104205 | 66 | 1 | 2.6 | 7.8 | 0.00 | 0.00 | 0.00 | 90 | 1012.0 |
| 20260507104105 | 66 | 51 | 2.6 | 7.8 | 0.00 | 0.00 | 0.00 | 90 | 1012.0 |
| 20260507104005 | 66 | 3 | 3.5 | 7.8 | 0.00 | 0.00 | 0.00 | 90 | 1011.8 |
| 20260507103904 | 66 | 1 | 4.3 | 7.8 | 0.00 | 0.00 | 0.00 | 90 | 1011.8 |
| 20260507103805 | 66 | 0 | 3.5 | 7.8 | 0.00 | 0.00 | 0.00 | 90 | 1011.7 |
| 20260507103704 | 66 | 0 | 3.5 | 7.8 | 0.00 | 0.00 | 0.00 | 90 | 1011.7 |
| 20260507103604 | 66 | 0 | 2.6 | 7.8 | 0.00 | 0.00 | 0.00 | 90 | 1011.6 |
| 20260507103505 | 66 | 1 | 2.6 | 7.8 | 0.00 | 0.00 | 0.00 | 90 | 1011.6 |
| 20260507103404 | 66 | 1 | 3.5 | 7.8 | 0.00 | 0.00 | 0.00 | 90 | 1011.6 |
| 20260507103305 | 66 | 1 | 4.3 | 7.8 | 0.00 | 0.00 | 0.00 | 90 | 1011.7 |
| 20260507103205 | 66 | 0 | 4.3 | 6.1 | 0.00 | 0.00 | 0.00 | 90 | 1011.8 |
| 20260507103105 | 66 | 49 | 3.5 | 6.1 | 0.00 | 0.00 | 0.00 | 90 | 1011.7 |
| 20260507103004 | 66 | 0 | 3.5 | 6.1 | 0.00 | 0.00 | 0.00 | 90 | 1011.7 |
| 20260507102904 | 66 | 0 | 3.5 | 6.1 | 0.00 | 0.00 | 0.00 | 90 | 1011.7 |
| 20260507102805 | 66 | 51 | 1.7 | 6.1 | 0.00 | 0.00 | 0.00 | 90 | 1011.8 |
| 20260507102704 | 66 | 51 | 1.7 | 6.1 | 0.00 | 0.00 | 0.00 | 90 | 1011.8 |
| 20260507102604 | 66 | 0 | 3.5 | 6.1 | 0.00 | 0.00 | 0.00 | 90 | 1011.7 |
| 20260507102504 | 66 | 51 | 2.6 | 6.1 | 0.00 | 0.00 | 0.00 | 90 | 1011.6 |
| 20260507102404 | 66 | 0 | 2.6 | 7.8 | 0.00 | 0.00 | 0.00 | 90 | 1011.5 |
| 20260507102306 | 66 | 0 | 3.5 | 7.8 | 0.00 | 0.00 | 0.00 | 90 | 1011.5 |
| 20260507102203 | 66 | 4 | 3.5 | 8.7 | 0.00 | 0.00 | 0.00 | 90 | 1011.4 |
| 20260507102105 | 66 | 1 | 3.5 | 8.7 | 0.00 | 0.00 | 0.00 | 90 | 1011.5 |
| 20260507102007 | 66 | 4 | 3.5 | 8.7 | 0.00 | 0.00 | 0.00 | 90 | 1011.5 |
| 20260507101904 | 66 | 4 | 3.5 | 8.7 | 0.00 | 0.00 | 0.00 | 90 | 1011.6 |
| 20260507101805 | 66 | 0 | 3.5 | 8.7 | 0.00 | 0.00 | 0.00 | 90 | 1011.7 |
| 20260507101706 | 66 | 1 | 3.5 | 8.7 | 0.00 | 0.00 | 0.00 | 90 | 1011.7 |
| 20260507101604 | 66 | 0 | 4.3 | 8.7 | 0.00 | 0.00 | 0.00 | 90 | 1011.7 |
| 20260507101503 | 66 | 0 | 4.3 | 8.7 | 0.00 | 0.00 | 0.00 | 90 | 1011.7 |
| 20260507101404 | 66 | 0 | 4.3 | 8.7 | 0.00 | 0.00 | 0.00 | 90 | 1011.7 |
| 20260507101304 | 66 | 0 | 4.3 | 8.7 | 0.00 | 0.00 | 0.00 | 90 | 1011.7 |
| 20260507101206 | 66 | 0 | 3.5 | 7.8 | 0.00 | 0.00 | 0.00 | 90 | 1011.6 |
| 20260507101106 | 66 | 3 | 2.6 | 8.7 | 0.00 | 0.00 | 0.00 | 90 | 1011.7 |
| 20260507101005 | 66 | 0 | 2.6 | 8.7 | 0.00 | 0.00 | 0.00 | 90 | 1011.6 |
| 20260507100904 | 66 | 51 | 2.6 | 8.7 | 0.00 | 0.00 | 0.00 | 90 | 1011.6 |
| 20260507100804 | 66 | 51 | 2.6 | 8.7 | 0.00 | 0.00 | 0.00 | 90 | 1011.7 |
| 20260507100704 | 66 | 0 | 3.5 | 8.7 | 0.00 | 0.00 | 0.00 | 90 | 1011.7 |
| 20260507100603 | 66 | 1 | 4.3 | 9.6 | 0.00 | 0.00 | 0.00 | 90 | 1011.7 |
| 20260507100503 | 66 | 48 | 3.5 | 12.2 | 0.00 | 0.00 | 0.00 | 90 | 1011.6 |
| 20260507100403 | 66 | 0 | 3.5 | 12.2 | 0.00 | 0.00 | 0.00 | 90 | 1011.5 |
| 20260507100303 | 66 | 0 | 4.3 | 12.2 | 0.00 | 0.00 | 0.00 | 90 | 1011.5 |
| 20260507100203 | 66 | 0 | 4.3 | 12.2 | 0.00 | 0.00 | 0.00 | 90 | 1011.5 |
| 20260507100103 | 66 | 48 | 4.3 | 12.2 | 0.00 | 0.00 | 0.00 | 90 | 1011.5 |
| 20260507100004 | 66 | 0 | 4.3 | 12.2 | 0.00 | 0.00 | 0.00 | 90 | 1011.4 |
| 20260507095903 | 66 | 0 | 4.3 | 12.2 | 0.00 | 0.00 | 0.00 | 90 | 1011.4 |
| 20260507095803 | 66 | 0 | 5.2 | 12.2 | 0.00 | 0.00 | 0.00 | 90 | 1011.4 |
| 20260507095703 | 66 | 0 | 7.0 | 12.2 | 0.00 | 0.00 | 0.00 | 90 | 1011.5 |
| 20260507095603 | 66 | 7 | 7.0 | 12.2 | 0.00 | 0.00 | 0.00 | 90 | 1011.4 |
| 20260507095503 | 66 | 7 | 5.2 | 11.3 | 0.00 | 0.00 | 0.00 | 90 | 1011.4 |
| 20260507095403 | 66 | 0 | 4.3 | 8.7 | 0.00 | 0.00 | 0.00 | 90 | 1011.3 |
| 20260507095306 | 66 | 7 | 3.5 | 8.7 | 0.00 | 0.00 | 0.00 | 90 | 1011.4 |
| 20260507095203 | 66 | 1 | 4.3 | 8.7 | 0.00 | 0.00 | 0.00 | 90 | 1011.4 |
| 20260507095104 | 66 | 6 | 3.5 | 8.7 | 0.00 | 0.00 | 0.00 | 90 | 1011.3 |
| 20260507095004 | 66 | 6 | 3.5 | 8.7 | 0.00 | 0.00 | 0.00 | 90 | 1011.3 |
| 20260507094903 | 66 | 8 | 3.5 | 10.4 | 0.00 | 0.00 | 0.00 | 90 | 1011.3 |
| 20260507094803 | 66 | 3 | 2.6 | 10.4 | 0.00 | 0.00 | 0.00 | 90 | 1011.3 |
| 20260507094703 | 66 | 0 | 2.6 | 10.4 | 0.00 | 0.00 | 0.00 | 90 | 1011.3 |
| 20260507094604 | 66 | 0 | 3.5 | 10.4 | 0.00 | 0.00 | 0.00 | 90 | 1011.3 |
| 20260507094505 | 66 | 1 | 5.2 | 10.4 | 0.00 | 0.00 | 0.00 | 90 | 1011.2 |
| 20260507094403 | 66 | 1 | 5.2 | 10.4 | 0.00 | 0.00 | 0.00 | 90 | 1011.1 |
| 20260507094304 | 66 | 1 | 4.3 | 10.4 | 0.00 | 0.00 | 0.00 | 90 | 1011.0 |
| 20260507094203 | 66 | 7 | 4.3 | 10.4 | 0.00 | 0.00 | 0.00 | 90 | 1011.0 |
| 20260507094103 | 66 | 0 | 6.1 | 10.4 | 0.00 | 0.00 | 0.00 | 90 | 1010.9 |
| 20260507094001 | 66 | 6 | 5.2 | 10.4 | 0.00 | 0.00 | 0.00 | 90 | 1011.0 |
| 20260507093901 | 66 | 1 | 4.3 | 9.6 | 0.00 | 0.00 | 0.00 | 90 | 1011.0 |
| 20260507093758 | 66 | 4 | 5.2 | 9.6 | 0.00 | 0.00 | 0.00 | 90 | 1011.0 |
| 20260507093657 | 66 | 3 | 5.2 | 9.6 | 0.00 | 0.00 | 0.00 | 90 | 1011.0 |
| 20260507093556 | 66 | 8 | 4.3 | 9.6 | 0.00 | 0.00 | 0.00 | 90 | 1011.1 |
| 20260507093455 | 66 | 7 | 4.3 | 9.6 | 0.00 | 0.00 | 0.00 | 90 | 1011.1 |
| 20260507093352 | 66 | 4 | 4.3 | 9.6 | 0.00 | 0.00 | 0.00 | 90 | 1011.1 |
| 20260507093251 | 66 | 7 | 5.2 | 9.6 | 0.00 | 0.00 | 0.00 | 89 | 1011.1 |
| 20260507093149 | 66 | 3 | 6.1 | 9.6 | 0.00 | 0.00 | 0.00 | 89 | 1011.0 |
| 20260507093048 | 66 | 6 | 4.3 | 9.6 | 0.00 | 0.00 | 0.00 | 89 | 1010.9 |
| 20260507092946 | 66 | 3 | 4.3 | 9.6 | 0.00 | 0.00 | 0.00 | 89 | 1011.1 |
| 20260507092846 | 66 | 4 | 5.2 | 9.6 | 0.00 | 0.00 | 0.00 | 89 | 1011.1 |
| 20260507092743 | 66 | 7 | 6.1 | 9.6 | 0.00 | 0.00 | 0.00 | 89 | 1011.1 |
| 20260507092642 | 66 | 3 | 5.2 | 9.6 | 0.00 | 0.00 | 0.00 | 89 | 1011.1 |
| 20260507092542 | 66 | 3 | 4.3 | 9.6 | 0.00 | 0.00 | 0.00 | 89 | 1011.1 |
| 20260507092439 | 66 | 1 | 3.5 | 9.6 | 0.00 | 0.00 | 0.00 | 89 | 1011.2 |
| 20260507092336 | 66 | 47 | 4.3 | 9.6 | 0.00 | 0.00 | 0.00 | 89 | 1011.2 |
| 20260507092235 | 66 | 3 | 5.2 | 9.6 | 0.00 | 0.00 | 0.00 | 89 | 1011.2 |
| 20260507092133 | 66 | 48 | 4.3 | 9.6 | 0.00 | 0.00 | 0.00 | 89 | 1011.3 |
| 20260507092032 | 66 | 0 | 3.5 | 9.6 | 0.00 | 0.00 | 0.00 | 89 | 1011.3 |
| 20260507091930 | 66 | 0 | 4.3 | 9.6 | 0.00 | 0.00 | 0.00 | 89 | 1011.2 |
| 20260507091829 | 66 | 3 | 4.3 | 9.6 | 0.00 | 0.00 | 0.00 | 89 | 1011.1 |
| 20260507091727 | 66 | 4 | 4.3 | 9.6 | 0.00 | 0.00 | 0.00 | 89 | 1011.1 |
| 20260507091626 | 66 | 1 | 6.1 | 12.2 | 0.00 | 0.00 | 0.00 | 89 | 1011.0 |
| 20260507091523 | 66 | 0 | 6.1 | 12.2 | 0.00 | 0.00 | 0.00 | 89 | 1011.1 |
| 20260507091422 | 66 | 3 | 5.2 | 12.2 | 0.00 | 0.00 | 0.00 | 89 | 1011.0 |
| 20260507091321 | 66 | 49 | 5.2 | 12.2 | 0.00 | 0.00 | 0.00 | 89 | 1011.1 |
| 20260507091220 | 66 | 1 | 5.2 | 12.2 | 0.00 | 0.00 | 0.00 | 89 | 1011.0 |
| 20260507091117 | 66 | 1 | 4.3 | 12.2 | 0.00 | 0.00 | 0.00 | 89 | 1011.1 |
| 20260507091018 | 66 | 48 | 5.2 | 12.2 | 0.00 | 0.00 | 0.00 | 89 | 1011.2 |
| 20260507090915 | 66 | 47 | 5.2 | 12.2 | 0.00 | 0.00 | 0.00 | 89 | 1011.2 |
| 20260507090815 | 66 | 1 | 6.1 | 12.2 | 0.00 | 0.00 | 0.00 | 89 | 1011.3 |
| 20260507090712 | 67 | 1 | 6.1 | 12.2 | 0.00 | 0.00 | 0.00 | 89 | 1011.2 |
| 20260507090610 | 67 | 49 | 5.2 | 10.4 | 0.00 | 0.00 | 0.00 | 89 | 1011.2 |
| 20260507090505 | 67 | 48 | 5.2 | 10.4 | 0.00 | 0.00 | 0.00 | 89 | 1011.3 |
| 20260507090404 | 67 | 0 | 4.3 | 10.4 | 0.00 | 0.00 | 0.00 | 89 | 1011.3 |
| 20260507090303 | 67 | 49 | 5.2 | 10.4 | 0.00 | 0.00 | 0.00 | 89 | 1011.4 |
| 20260507090203 | 67 | 0 | 5.2 | 10.4 | 0.00 | 0.00 | 0.00 | 89 | 1011.3 |
| 20260507090105 | 67 | 4 | 4.3 | 7.8 | 0.00 | 0.00 | 0.00 | 88 | 1011.3 |
| 20260507090004 | 67 | 48 | 4.3 | 6.1 | 0.00 | 0.00 | 0.00 | 88 | 1011.2 |
| 20260507085903 | 67 | 3 | 4.3 | 8.7 | 0.00 | 0.00 | 0.00 | 88 | 1011.2 |
| 20260507085803 | 67 | 48 | 3.5 | 8.7 | 0.00 | 0.00 | 0.00 | 89 | 1011.2 |
| 20260507085702 | 67 | 1 | 4.3 | 11.3 | 0.00 | 0.00 | 0.00 | 88 | 1011.2 |
| 20260507085602 | 67 | 48 | 5.2 | 11.3 | 0.00 | 0.00 | 0.00 | 88 | 1011.2 |
| 20260507085503 | 67 | 1 | 5.2 | 11.3 | 0.00 | 0.00 | 0.00 | 88 | 1011.3 |
| 20260507085404 | 67 | 47 | 4.3 | 11.3 | 0.00 | 0.00 | 0.00 | 88 | 1011.4 |
| 20260507085306 | 67 | 49 | 6.1 | 11.3 | 0.00 | 0.00 | 0.00 | 88 | 1011.5 |
| 20260507085202 | 67 | 49 | 6.1 | 11.3 | 0.00 | 0.00 | 0.00 | 88 | 1011.5 |
| 20260507085032 | 67 | 49 | 6.1 | 11.3 | 0.00 | 0.00 | 0.00 | 88 | 1011.3 |
| 20260507084932 | 67 | 49 | 6.1 | 11.3 | 0.00 | 0.00 | 0.00 | 88 | 1011.3 |
| 20260507084830 | 67 | 49 | 7.0 | 11.3 | 0.00 | 0.00 | 0.00 | 88 | 1011.2 |
| 20260507084728 | 67 | 4 | 7.0 | 12.2 | 0.00 | 0.00 | 0.00 | 88 | 1011.2 |
| 20260507084627 | 67 | 51 | 7.0 | 12.2 | 0.00 | 0.00 | 0.00 | 88 | 1011.2 |
| 20260507084525 | 67 | 4 | 6.1 | 13.9 | 0.00 | 0.00 | 0.00 | 88 | 1011.3 |
| 20260507084424 | 67 | 0 | 5.2 | 13.9 | 0.00 | 0.00 | 0.00 | 88 | 1011.3 |
| 20260507084322 | 67 | 49 | 5.2 | 13.9 | 0.00 | 0.00 | 0.00 | 88 | 1011.4 |
| 20260507084220 | 67 | 0 | 6.1 | 13.9 | 0.00 | 0.00 | 0.00 | 88 | 1011.4 |
| 20260507084119 | 67 | 0 | 6.1 | 13.9 | 0.00 | 0.00 | 0.00 | 88 | 1011.3 |
| 20260507084018 | 67 | 6 | 6.1 | 13.9 | 0.00 | 0.00 | 0.00 | 88 | 1011.3 |
| 20260507083916 | 67 | 0 | 7.0 | 13.9 | 0.00 | 0.00 | 0.00 | 88 | 1011.3 |
| 20260507083814 | 67 | 0 | 7.8 | 13.9 | 0.00 | 0.00 | 0.00 | 88 | 1011.3 |
| 20260507083713 | 67 | 0 | 8.7 | 13.9 | 0.00 | 0.00 | 0.00 | 88 | 1011.3 |
| 20260507083612 | 67 | 0 | 7.8 | 12.2 | 0.00 | 0.00 | 0.00 | 88 | 1011.3 |
| 20260507083507 | 67 | 1 | 5.2 | 12.2 | 0.00 | 0.00 | 0.00 | 88 | 1011.2 |
| 20260507083408 | 67 | 1 | 5.2 | 12.2 | 0.00 | 0.00 | 0.00 | 88 | 1011.2 |
| 20260507083308 | 67 | 0 | 7.0 | 12.2 | 0.00 | 0.00 | 0.00 | 88 | 1011.1 |
| 20260507083205 | 67 | 0 | 7.0 | 12.2 | 0.00 | 0.00 | 0.00 | 88 | 1011.0 |
| 20260507083103 | 67 | 4 | 7.0 | 12.2 | 0.00 | 0.00 | 0.00 | 88 | 1011.0 |
| 20260507083004 | 67 | 0 | 7.8 | 12.2 | 0.00 | 0.00 | 0.00 | 88 | 1011.0 |
| 20260507082902 | 67 | 1 | 7.0 | 12.2 | 0.00 | 0.00 | 0.00 | 88 | 1011.0 |
| 20260507082804 | 67 | 1 | 5.2 | 12.2 | 0.00 | 0.00 | 0.00 | 88 | 1011.0 |
| 20260507082703 | 67 | 4 | 4.3 | 9.6 | 0.00 | 0.00 | 0.00 | 88 | 1011.0 |
| 20260507082602 | 67 | 6 | 4.3 | 9.6 | 0.00 | 0.00 | 0.00 | 88 | 1011.2 |
| 20260507082503 | 67 | 0 | 5.2 | 9.6 | 0.00 | 0.00 | 0.00 | 88 | 1011.2 |
| 20260507082402 | 67 | 1 | 5.2 | 9.6 | 0.00 | 0.00 | 0.00 | 88 | 1011.2 |
| 20260507082306 | 67 | 0 | 6.1 | 10.4 | 0.00 | 0.00 | 0.00 | 88 | 1011.2 |
| 20260507082204 | 67 | 1 | 6.1 | 10.4 | 0.00 | 0.00 | 0.00 | 88 | 1011.3 |
| 20260507082103 | 67 | 1 | 5.2 | 10.4 | 0.00 | 0.00 | 0.00 | 88 | 1011.2 |
| 20260507082003 | 67 | 0 | 5.2 | 10.4 | 0.00 | 0.00 | 0.00 | 88 | 1011.3 |
| 20260507081902 | 67 | 4 | 5.2 | 10.4 | 0.00 | 0.00 | 0.00 | 88 | 1011.2 |
| 20260507081802 | 67 | 0 | 4.3 | 10.4 | 0.00 | 0.00 | 0.00 | 88 | 1011.1 |
| 20260507081703 | 67 | 1 | 4.3 | 10.4 | 0.00 | 0.00 | 0.00 | 87 | 1011.0 |
| 20260507081603 | 67 | 0 | 6.1 | 10.4 | 0.00 | 0.00 | 0.00 | 87 | 1011.0 |
| 20260507081504 | 67 | 0 | 6.1 | 10.4 | 0.00 | 0.00 | 0.00 | 87 | 1010.9 |
| 20260507081402 | 67 | 0 | 6.1 | 10.4 | 0.00 | 0.00 | 0.00 | 87 | 1011.0 |
| 20260507081302 | 67 | 0 | 4.3 | 9.6 | 0.00 | 0.00 | 0.00 | 87 | 1010.9 |
| 20260507081202 | 67 | 48 | 4.3 | 9.6 | 0.00 | 0.00 | 0.00 | 87 | 1011.0 |
| 20260507081102 | 67 | 3 | 5.2 | 9.6 | 0.00 | 0.00 | 0.00 | 87 | 1010.9 |
| 20260507081003 | 67 | 1 | 4.3 | 9.6 | 0.00 | 0.00 | 0.00 | 87 | 1011.0 |
| 20260507080903 | 67 | 0 | 5.2 | 9.6 | 0.00 | 0.00 | 0.00 | 87 | 1011.0 |
| 20260507080801 | 67 | 3 | 6.1 | 9.6 | 0.00 | 0.00 | 0.00 | 87 | 1011.0 |
| 20260507080702 | 67 | 0 | 6.1 | 9.6 | 0.00 | 0.00 | 0.00 | 87 | 1010.9 |
| 20260507080602 | 67 | 1 | 5.2 | 9.6 | 0.00 | 0.00 | 0.00 | 87 | 1011.0 |
| 20260507080502 | 67 | 0 | 4.3 | 9.6 | 0.00 | 0.00 | 0.00 | 87 | 1011.1 |
| 20260507080402 | 67 | 4 | 4.3 | 9.6 | 0.00 | 0.00 | 0.00 | 87 | 1011.0 |
| 20260507080303 | 68 | 0 | 4.3 | 9.6 | 0.00 | 0.00 | 0.00 | 87 | 1011.0 |
| 20260507080203 | 67 | 1 | 3.5 | 9.6 | 0.00 | 0.00 | 0.00 | 87 | 1011.0 |
| 20260507080103 | 68 | 0 | 3.5 | 9.6 | 0.00 | 0.00 | 0.00 | 87 | 1011.0 |
| 20260507080003 | 68 | 0 | 3.5 | 9.6 | 0.00 | 0.00 | 0.00 | 87 | 1011.0 |
| 20260507075902 | 68 | 0 | 3.5 | 9.6 | 0.00 | 0.00 | 0.00 | 87 | 1011.0 |
| 20260507075802 | 68 | 0 | 4.3 | 9.6 | 0.00 | 0.00 | 0.00 | 87 | 1011.0 |
| 20260507075702 | 68 | 0 | 5.2 | 9.6 | 0.00 | 0.00 | 0.00 | 87 | 1011.0 |
| 20260507075601 | 68 | 0 | 5.2 | 9.6 | 0.00 | 0.00 | 0.00 | 87 | 1011.1 |
| 20260507075503 | 68 | 0 | 4.3 | 8.7 | 0.00 | 0.00 | 0.00 | 87 | 1011.2 |
| 20260507075403 | 68 | 0 | 4.3 | 9.6 | 0.00 | 0.00 | 0.00 | 87 | 1011.2 |
| 20260507075306 | 68 | 0 | 3.5 | 9.6 | 0.00 | 0.00 | 0.00 | 87 | 1011.2 |
| 20260507075202 | 68 | 0 | 4.3 | 9.6 | 0.00 | 0.00 | 0.00 | 87 | 1011.2 |
| 20260507075104 | 68 | 0 | 5.2 | 9.6 | 0.00 | 0.00 | 0.00 | 87 | 1011.3 |
| 20260507075003 | 68 | 48 | 5.2 | 10.4 | 0.00 | 0.00 | 0.00 | 87 | 1011.3 |
| 20260507074902 | 68 | 0 | 5.2 | 10.4 | 0.00 | 0.00 | 0.00 | 87 | 1011.2 |
| 20260507074804 | 68 | 0 | 5.2 | 10.4 | 0.00 | 0.00 | 0.00 | 87 | 1011.2 |
| 20260507074703 | 68 | 0 | 6.1 | 10.4 | 0.00 | 0.00 | 0.00 | 87 | 1011.2 |
| 20260507074603 | 68 | 0 | 5.2 | 10.4 | 0.00 | 0.00 | 0.00 | 87 | 1011.2 |
| 20260507074502 | 68 | 0 | 5.2 | 10.4 | 0.00 | 0.00 | 0.00 | 87 | 1011.2 |
| 20260507074402 | 68 | 1 | 6.1 | 10.4 | 0.00 | 0.00 | 0.00 | 87 | 1011.2 |
| 20260507074302 | 68 | 0 | 6.1 | 10.4 | 0.00 | 0.00 | 0.00 | 87 | 1011.3 |
| 20260507074202 | 68 | 0 | 6.1 | 10.4 | 0.00 | 0.00 | 0.00 | 87 | 1011.3 |
| 20260507074102 | 68 | 0 | 6.1 | 10.4 | 0.00 | 0.00 | 0.00 | 87 | 1011.3 |
| 20260507074002 | 68 | 3 | 4.3 | 7.8 | 0.00 | 0.00 | 0.00 | 87 | 1011.3 |
| 20260507073903 | 68 | 0 | 3.5 | 7.8 | 0.00 | 0.00 | 0.00 | 87 | 1011.2 |
| 20260507073802 | 68 | 0 | 3.5 | 7.8 | 0.00 | 0.00 | 0.00 | 87 | 1011.2 |
| 20260507073702 | 68 | 3 | 4.3 | 7.8 | 0.00 | 0.00 | 0.00 | 87 | 1011.2 |
| 20260507073603 | 68 | 0 | 4.3 | 7.8 | 0.00 | 0.00 | 0.00 | 87 | 1011.2 |
| 20260507073503 | 68 | 0 | 4.3 | 7.8 | 0.00 | 0.00 | 0.00 | 87 | 1011.2 |
| 20260507073402 | 68 | 0 | 4.3 | 7.8 | 0.00 | 0.00 | 0.00 | 87 | 1011.2 |
| 20260507073302 | 68 | 0 | 3.5 | 7.8 | 0.00 | 0.00 | 0.00 | 87 | 1011.2 |
| 20260507073203 | 68 | 3 | 3.5 | 7.8 | 0.00 | 0.00 | 0.00 | 87 | 1011.2 |
| 20260507073102 | 68 | 7 | 4.3 | 7.8 | 0.00 | 0.00 | 0.00 | 87 | 1011.2 |
| 20260507073002 | 68 | 0 | 4.3 | 10.4 | 0.00 | 0.00 | 0.00 | 87 | 1011.2 |
| 20260507072904 | 68 | 0 | 5.2 | 10.4 | 0.00 | 0.00 | 0.00 | 87 | 1011.2 |
| 20260507072802 | 68 | 0 | 3.5 | 10.4 | 0.00 | 0.00 | 0.00 | 87 | 1011.2 |
| 20260507072703 | 68 | 0 | 3.5 | 10.4 | 0.00 | 0.00 | 0.00 | 87 | 1011.2 |
| 20260507072602 | 68 | 0 | 3.5 | 10.4 | 0.00 | 0.00 | 0.00 | 87 | 1011.2 |
| 20260507072502 | 68 | 0 | 3.5 | 10.4 | 0.00 | 0.00 | 0.00 | 87 | 1011.3 |
| 20260507072402 | 68 | 0 | 3.5 | 10.4 | 0.00 | 0.00 | 0.00 | 87 | 1011.3 |
| 20260507072306 | 68 | 1 | 3.5 | 10.4 | 0.00 | 0.00 | 0.00 | 87 | 1011.4 |
| 20260507072202 | 68 | 0 | 5.2 | 10.4 | 0.00 | 0.00 | 0.00 | 87 | 1011.5 |
| 20260507072101 | 68 | 0 | 5.2 | 10.4 | 0.00 | 0.00 | 0.00 | 87 | 1011.5 |
| 20260507072001 | 68 | 0 | 4.3 | 9.6 | 0.00 | 0.00 | 0.00 | 87 | 1011.5 |
| 20260507071903 | 68 | 0 | 3.5 | 9.6 | 0.00 | 0.00 | 0.00 | 87 | 1011.6 |
| 20260507071802 | 68 | 4 | 3.5 | 9.6 | 0.00 | 0.00 | 0.00 | 87 | 1011.5 |
| 20260507071702 | 68 | 0 | 5.2 | 9.6 | 0.00 | 0.00 | 0.00 | 86 | 1011.5 |
| 20260507071601 | 68 | 0 | 6.1 | 9.6 | 0.00 | 0.00 | 0.00 | 87 | 1011.5 |
| 20260507071500 | 68 | 0 | 5.2 | 9.6 | 0.00 | 0.00 | 0.00 | 87 | 1011.5 |
| 20260507071401 | 68 | 0 | 3.5 | 9.6 | 0.00 | 0.00 | 0.00 | 87 | 1011.5 |
| 20260507071302 | 68 | 0 | 3.5 | 9.6 | 0.00 | 0.00 | 0.00 | 87 | 1011.6 |
| 20260507071159 | 68 | 0 | 3.5 | 9.6 | 0.00 | 0.00 | 0.00 | 86 | 1011.6 |
| 20260507071101 | 68 | 0 | 4.3 | 9.6 | 0.00 | 0.00 | 0.00 | 86 | 1011.6 |
| 20260507071000 | 68 | 0 | 4.3 | 9.6 | 0.00 | 0.00 | 0.00 | 86 | 1011.6 |
| 20260507070859 | 68 | 0 | 5.2 | 9.6 | 0.00 | 0.00 | 0.00 | 87 | 1011.5 |
| 20260507070759 | 68 | 0 | 6.1 | 9.6 | 0.00 | 0.00 | 0.00 | 86 | 1011.5 |
| 20260507070659 | 68 | 0 | 5.2 | 10.4 | 0.00 | 0.00 | 0.00 | 86 | 1011.4 |
| 20260507070556 | 68 | 0 | 5.2 | 10.4 | 0.00 | 0.00 | 0.00 | 87 | 1011.4 |
| 20260507070454 | 68 | 0 | 5.2 | 10.4 | 0.00 | 0.00 | 0.00 | 87 | 1011.5 |
| 20260507070353 | 68 | 0 | 5.2 | 10.4 | 0.00 | 0.00 | 0.00 | 86 | 1011.4 |
| 20260507070250 | 68 | 0 | 5.2 | 10.4 | 0.00 | 0.00 | 0.00 | 86 | 1011.3 |
| 20260507070147 | 68 | 0 | 4.3 | 10.4 | 0.00 | 0.00 | 0.00 | 86 | 1011.3 |
| 20260507070047 | 68 | 0 | 3.5 | 10.4 | 0.00 | 0.00 | 0.00 | 86 | 1011.4 |
| 20260507065947 | 68 | 0 | 3.5 | 10.4 | 0.00 | 0.00 | 0.00 | 86 | 1011.3 |
| 20260507065845 | 68 | 0 | 6.1 | 10.4 | 0.00 | 0.00 | 0.00 | 86 | 1011.4 |
| 20260507065743 | 68 | 0 | 7.0 | 10.4 | 0.00 | 0.00 | 0.00 | 86 | 1011.4 |
| 20260507065641 | 68 | 0 | 5.2 | 9.6 | 0.00 | 0.00 | 0.00 | 86 | 1011.4 |
| 20260507065540 | 68 | 4 | 4.3 | 9.6 | 0.00 | 0.00 | 0.00 | 86 | 1011.5 |
| 20260507065438 | 68 | 0 | 4.3 | 9.6 | 0.00 | 0.00 | 0.00 | 86 | 1011.5 |
| 20260507065337 | 68 | 0 | 6.1 | 9.6 | 0.00 | 0.00 | 0.00 | 86 | 1011.5 |
| 20260507065234 | 68 | 0 | 6.1 | 9.6 | 0.00 | 0.00 | 0.00 | 86 | 1011.6 |
| 20260507065132 | 68 | 0 | 5.2 | 9.6 | 0.00 | 0.00 | 0.00 | 86 | 1011.7 |
| 20260507065031 | 68 | 0 | 4.3 | 7.8 | 0.00 | 0.00 | 0.00 | 86 | 1011.6 |
| 20260507064931 | 68 | 0 | 4.3 | 7.8 | 0.00 | 0.00 | 0.00 | 86 | 1011.6 |
| 20260507064830 | 68 | 0 | 4.3 | 7.8 | 0.00 | 0.00 | 0.00 | 86 | 1011.5 |
| 20260507064732 | 68 | 0 | 3.5 | 7.8 | 0.00 | 0.00 | 0.00 | 86 | 1011.4 |
| 20260507064631 | 68 | 0 | 2.6 | 7.8 | 0.00 | 0.00 | 0.00 | 86 | 1011.3 |
| 20260507064531 | 68 | 0 | 3.5 | 7.8 | 0.00 | 0.00 | 0.00 | 86 | 1011.3 |
| 20260507064431 | 68 | 3 | 3.5 | 9.6 | 0.00 | 0.00 | 0.00 | 86 | 1011.2 |
| 20260507064333 | 68 | 0 | 4.3 | 9.6 | 0.00 | 0.00 | 0.00 | 86 | 1011.1 |
| 20260507064232 | 68 | 0 | 4.3 | 9.6 | 0.00 | 0.00 | 0.00 | 86 | 1011.2 |
| 20260507064131 | 68 | 0 | 4.3 | 11.3 | 0.00 | 0.00 | 0.00 | 86 | 1011.2 |
| 20260507064032 | 68 | 0 | 4.3 | 11.3 | 0.00 | 0.00 | 0.00 | 86 | 1011.2 |
| 20260507063932 | 68 | 0 | 3.5 | 11.3 | 0.00 | 0.00 | 0.00 | 86 | 1011.2 |
| 20260507063832 | 68 | 0 | 3.5 | 11.3 | 0.00 | 0.00 | 0.00 | 86 | 1011.3 |
| 20260507063731 | 68 | 0 | 5.2 | 11.3 | 0.00 | 0.00 | 0.00 | 86 | 1011.4 |
| 20260507063631 | 68 | 0 | 6.1 | 11.3 | 0.00 | 0.00 | 0.00 | 86 | 1011.4 |
| 20260507063532 | 68 | 0 | 5.2 | 11.3 | 0.00 | 0.00 | 0.00 | 86 | 1011.6 |
| 20260507063431 | 68 | 0 | 4.3 | 11.3 | 0.00 | 0.00 | 0.00 | 86 | 1011.6 |
| 20260507063332 | 68 | 0 | 5.2 | 11.3 | 0.00 | 0.00 | 0.00 | 86 | 1011.6 |
| 20260507063231 | 68 | 0 | 4.3 | 11.3 | 0.00 | 0.00 | 0.00 | 86 | 1011.6 |
| 20260507063130 | 68 | 0 | 4.3 | 11.3 | 0.00 | 0.00 | 0.00 | 86 | 1011.5 |
| 20260507063032 | 68 | 0 | 6.1 | 11.3 | 0.00 | 0.00 | 0.00 | 86 | 1011.5 |
| 20260507062933 | 68 | 0 | 6.1 | 11.3 | 0.00 | 0.00 | 0.00 | 86 | 1011.5 |
| 20260507062832 | 68 | 0 | 5.2 | 8.7 | 0.00 | 0.00 | 0.00 | 86 | 1011.4 |
| 20260507062731 | 68 | 0 | 5.2 | 8.7 | 0.00 | 0.00 | 0.00 | 86 | 1011.4 |
| 20260507062632 | 68 | 0 | 5.2 | 9.6 | 0.00 | 0.00 | 0.00 | 86 | 1011.3 |
| 20260507062531 | 68 | 0 | 5.2 | 9.6 | 0.00 | 0.00 | 0.00 | 86 | 1011.3 |
| 20260507062431 | 68 | 7 | 5.2 | 9.6 | 0.00 | 0.00 | 0.00 | 86 | 1011.2 |
| 20260507062333 | 68 | 0 | 4.3 | 9.6 | 0.00 | 0.00 | 0.00 | 86 | 1011.2 |
| 20260507062231 | 68 | 0 | 4.3 | 9.6 | 0.00 | 0.00 | 0.00 | 86 | 1011.1 |
| 20260507062130 | 68 | 0 | 5.2 | 9.6 | 0.00 | 0.00 | 0.00 | 86 | 1011.1 |
| 20260507062029 | 68 | 0 | 4.3 | 11.3 | 0.00 | 0.00 | 0.00 | 86 | 1011.1 |
| 20260507061927 | 68 | 0 | 4.3 | 11.3 | 0.00 | 0.00 | 0.00 | 86 | 1011.0 |
| 20260507061825 | 68 | 0 | 6.1 | 11.3 | 0.00 | 0.00 | 0.00 | 86 | 1011.1 |
| 20260507061723 | 68 | 0 | 6.1 | 11.3 | 0.00 | 0.00 | 0.00 | 86 | 1011.1 |
| 20260507061622 | 68 | 0 | 4.3 | 11.3 | 0.00 | 0.00 | 0.00 | 86 | 1011.2 |
| 20260507061520 | 68 | 1 | 3.5 | 11.3 | 0.00 | 0.00 | 0.00 | 86 | 1011.2 |
| 20260507061419 | 68 | 0 | 5.2 | 11.3 | 0.00 | 0.00 | 0.00 | 85 | 1011.3 |
| 20260507061318 | 68 | 0 | 7.0 | 11.3 | 0.00 | 0.00 | 0.00 | 85 | 1011.3 |
| 20260507061216 | 68 | 1 | 6.1 | 11.3 | 0.00 | 0.00 | 0.00 | 85 | 1011.3 |
| 20260507061114 | 68 | 1 | 5.2 | 10.4 | 0.00 | 0.00 | 0.00 | 85 | 1011.4 |
| 20260507061013 | 68 | 0 | 5.2 | 10.4 | 0.00 | 0.00 | 0.00 | 85 | 1011.3 |
| 20260507060912 | 69 | 0 | 6.1 | 11.3 | 0.00 | 0.00 | 0.00 | 85 | 1011.3 |
| 20260507060810 | 69 | 0 | 5.2 | 11.3 | 0.00 | 0.00 | 0.00 | 86 | 1011.3 |
| 20260507060709 | 69 | 0 | 4.3 | 11.3 | 0.00 | 0.00 | 0.00 | 86 | 1011.3 |
| 20260507060607 | 68 | 0 | 5.2 | 11.3 | 0.00 | 0.00 | 0.00 | 85 | 1011.3 |
| 20260507060506 | 69 | 3 | 6.1 | 11.3 | 0.00 | 0.00 | 0.00 | 86 | 1011.3 |
| 20260507060404 | 69 | 1 | 7.0 | 11.3 | 0.00 | 0.00 | 0.00 | 86 | 1011.3 |
| 20260507060301 | 69 | 0 | 4.3 | 11.3 | 0.00 | 0.00 | 0.00 | 85 | 1011.2 |
| 20260507060201 | 69 | 0 | 4.3 | 11.3 | 0.00 | 0.00 | 0.00 | 86 | 1011.2 |
| 20260507060104 | 69 | 4 | 5.2 | 11.3 | 0.00 | 0.00 | 0.00 | 85 | 1011.3 |
| 20260507060004 | 69 | 0 | 6.1 | 11.3 | 0.00 | 0.00 | 0.00 | 85 | 1011.3 |
| 20260507055903 | 69 | 1 | 6.1 | 11.3 | 0.00 | 0.00 | 0.00 | 85 | 1011.3 |
| 20260507055802 | 69 | 0 | 7.8 | 11.3 | 0.00 | 0.00 | 0.00 | 85 | 1011.3 |
| 20260507055702 | 69 | 0 | 7.0 | 11.3 | 0.00 | 0.00 | 0.00 | 85 | 1011.3 |
| 20260507055604 | 69 | 0 | 5.2 | 10.4 | 0.00 | 0.00 | 0.00 | 85 | 1011.3 |
| 20260507055502 | 69 | 0 | 4.3 | 10.4 | 0.00 | 0.00 | 0.00 | 85 | 1011.3 |
| 20260507055402 | 69 | 0 | 4.3 | 10.4 | 0.00 | 0.00 | 0.00 | 85 | 1011.3 |
| 20260507055305 | 69 | 0 | 4.3 | 10.4 | 0.00 | 0.00 | 0.00 | 85 | 1011.3 |
| 20260507055202 | 69 | 0 | 4.3 | 10.4 | 0.00 | 0.00 | 0.00 | 85 | 1011.3 |
| 20260507055103 | 69 | 4 | 5.2 | 10.4 | 0.00 | 0.00 | 0.00 | 85 | 1011.3 |
| 20260507055003 | 69 | 0 | 4.3 | 10.4 | 0.00 | 0.00 | 0.00 | 85 | 1011.3 |
| 20260507054902 | 69 | 1 | 4.3 | 10.4 | 0.00 | 0.00 | 0.00 | 85 | 1011.2 |
| 20260507054802 | 69 | 0 | 6.1 | 10.4 | 0.00 | 0.00 | 0.00 | 85 | 1011.2 |
| 20260507054702 | 69 | 0 | 5.2 | 10.4 | 0.00 | 0.00 | 0.00 | 85 | 1011.1 |
| 20260507054602 | 69 | 0 | 4.3 | 10.4 | 0.00 | 0.00 | 0.00 | 85 | 1011.1 |
| 20260507054503 | 69 | 0 | 4.3 | 10.4 | 0.00 | 0.00 | 0.00 | 85 | 1011.0 |
| 20260507054402 | 69 | 0 | 4.3 | 10.4 | 0.00 | 0.00 | 0.00 | 85 | 1011.0 |
| 20260507054303 | 69 | 0 | 5.2 | 10.4 | 0.00 | 0.00 | 0.00 | 85 | 1010.9 |
| 20260507054202 | 69 | 0 | 4.3 | 10.4 | 0.00 | 0.00 | 0.00 | 85 | 1011.0 |
| 20260507054102 | 69 | 0 | 3.5 | 10.4 | 0.00 | 0.00 | 0.00 | 85 | 1010.9 |
| 20260507054004 | 69 | 0 | 4.3 | 10.4 | 0.00 | 0.00 | 0.00 | 85 | 1010.9 |
| 20260507053903 | 69 | 1 | 5.2 | 10.4 | 0.00 | 0.00 | 0.00 | 85 | 1010.9 |
| 20260507053802 | 69 | 0 | 4.3 | 10.4 | 0.00 | 0.00 | 0.00 | 85 | 1011.0 |
| 20260507053703 | 69 | 0 | 5.2 | 10.4 | 0.00 | 0.00 | 0.00 | 85 | 1011.0 |
| 20260507053603 | 69 | 3 | 5.2 | 10.4 | 0.00 | 0.00 | 0.00 | 85 | 1011.0 |
| 20260507053504 | 69 | 0 | 4.3 | 10.4 | 0.00 | 0.00 | 0.00 | 85 | 1011.0 |
| 20260507053403 | 69 | 0 | 5.2 | 10.4 | 0.00 | 0.00 | 0.00 | 85 | 1011.0 |
| 20260507053304 | 69 | 0 | 5.2 | 10.4 | 0.00 | 0.00 | 0.00 | 85 | 1011.0 |
| 20260507053203 | 69 | 0 | 4.3 | 10.4 | 0.00 | 0.00 | 0.00 | 85 | 1011.0 |
| 20260507053103 | 69 | 0 | 3.5 | 10.4 | 0.00 | 0.00 | 0.00 | 85 | 1010.9 |
| 20260507053003 | 69 | 0 | 5.2 | 10.4 | 0.00 | 0.00 | 0.00 | 85 | 1010.9 |
| 20260507052902 | 69 | 0 | 5.2 | 10.4 | 0.00 | 0.00 | 0.00 | 85 | 1010.9 |
| 20260507052803 | 69 | 0 | 5.2 | 10.4 | 0.00 | 0.00 | 0.00 | 85 | 1011.0 |
| 20260507052701 | 69 | 0 | 5.2 | 10.4 | 0.00 | 0.00 | 0.00 | 85 | 1011.0 |
| 20260507052603 | 69 | 0 | 5.2 | 10.4 | 0.00 | 0.00 | 0.00 | 85 | 1011.1 |
| 20260507052504 | 69 | 0 | 5.2 | 11.3 | 0.00 | 0.00 | 0.00 | 85 | 1011.0 |
| 20260507052402 | 69 | 0 | 6.1 | 11.3 | 0.00 | 0.00 | 0.00 | 85 | 1011.0 |
| 20260507052305 | 69 | 0 | 6.1 | 11.3 | 0.00 | 0.00 | 0.00 | 85 | 1011.0 |
| 20260507052202 | 69 | 0 | 6.1 | 11.3 | 0.00 | 0.00 | 0.00 | 85 | 1011.0 |
| 20260507052102 | 69 | 0 | 5.2 | 11.3 | 0.00 | 0.00 | 0.00 | 85 | 1011.0 |
| 20260507052003 | 69 | 0 | 4.3 | 11.3 | 0.00 | 0.00 | 0.00 | 85 | 1011.1 |
| 20260507051904 | 69 | 0 | 5.2 | 11.3 | 0.00 | 0.00 | 0.00 | 85 | 1011.0 |
| 20260507051803 | 69 | 0 | 5.2 | 11.3 | 0.00 | 0.00 | 0.00 | 85 | 1011.0 |
| 20260507051702 | 69 | 4 | 6.1 | 11.3 | 0.00 | 0.00 | 0.00 | 85 | 1011.1 |
| 20260507051603 | 70 | 0 | 4.3 | 11.3 | 0.00 | 0.00 | 0.00 | 85 | 1011.1 |
| 20260507051504 | 69 | 0 | 3.5 | 9.6 | 0.00 | 0.00 | 0.00 | 85 | 1011.2 |
| 20260507051402 | 70 | 0 | 5.2 | 9.6 | 0.00 | 0.00 | 0.00 | 85 | 1011.1 |
| 20260507051302 | 70 | 0 | 6.1 | 9.6 | 0.00 | 0.00 | 0.00 | 85 | 1011.2 |
| 20260507051203 | 70 | 0 | 6.1 | 9.6 | 0.00 | 0.00 | 0.00 | 85 | 1011.2 |
| 20260507051102 | 70 | 0 | 5.2 | 9.6 | 0.00 | 0.00 | 0.00 | 85 | 1011.2 |
| 20260507051003 | 70 | 0 | 5.2 | 9.6 | 0.00 | 0.00 | 0.00 | 85 | 1011.1 |
| 20260507050905 | 70 | 3 | 4.3 | 9.6 | 0.00 | 0.00 | 0.00 | 85 | 1011.2 |
| 20260507050802 | 70 | 0 | 4.3 | 9.6 | 0.00 | 0.00 | 0.00 | 85 | 1011.1 |
| 20260507050703 | 70 | 3 | 3.5 | 9.6 | 0.00 | 0.00 | 0.00 | 85 | 1011.1 |
| 20260507050602 | 70 | 1 | 3.5 | 9.6 | 0.00 | 0.00 | 0.00 | 85 | 1011.0 |
| 20260507050501 | 70 | 0 | 3.5 | 9.6 | 0.00 | 0.00 | 0.00 | 85 | 1011.0 |
| 20260507050401 | 70 | 0 | 4.3 | 9.6 | 0.00 | 0.00 | 0.00 | 85 | 1011.1 |
| 20260507050300 | 70 | 0 | 6.1 | 9.6 | 0.00 | 0.00 | 0.00 | 85 | 1011.1 |
| 20260507050157 | 70 | 0 | 5.2 | 9.6 | 0.00 | 0.00 | 0.00 | 86 | 1011.0 |
| 20260507050056 | 70 | 0 | 4.3 | 9.6 | 0.00 | 0.00 | 0.00 | 86 | 1011.0 |
| 20260507045957 | 70 | 0 | 4.3 | 8.7 | 0.00 | 0.00 | 0.00 | 86 | 1011.1 |
| 20260507045857 | 70 | 0 | 4.3 | 8.7 | 0.00 | 0.00 | 0.00 | 86 | 1011.0 |
| 20260507045757 | 70 | 0 | 3.5 | 8.7 | 0.00 | 0.00 | 0.00 | 86 | 1011.1 |
| 20260507045656 | 70 | 0 | 3.5 | 8.7 | 0.00 | 0.00 | 0.00 | 86 | 1011.1 |
| 20260507045555 | 70 | 0 | 3.5 | 8.7 | 0.00 | 0.00 | 0.00 | 86 | 1011.1 |
| 20260507045457 | 70 | 0 | 3.5 | 8.7 | 0.00 | 0.00 | 0.00 | 86 | 1011.1 |
| 20260507045356 | 70 | 0 | 3.5 | 8.7 | 0.00 | 0.00 | 0.00 | 86 | 1011.1 |
| 20260507045256 | 70 | 0 | 5.2 | 8.7 | 0.00 | 0.00 | 0.00 | 85 | 1011.0 |
| 20260507045156 | 70 | 0 | 6.1 | 8.7 | 0.00 | 0.00 | 0.00 | 85 | 1011.1 |
| 20260507045057 | 70 | 0 | 6.1 | 8.7 | 0.00 | 0.00 | 0.00 | 85 | 1011.1 |
| 20260507044956 | 70 | 0 | 5.2 | 9.6 | 0.00 | 0.00 | 0.00 | 85 | 1011.1 |
| 20260507044856 | 70 | 0 | 3.5 | 9.6 | 0.00 | 0.00 | 0.00 | 85 | 1011.1 |
| 20260507044757 | 70 | 0 | 2.6 | 9.6 | 0.00 | 0.00 | 0.00 | 85 | 1011.0 |
| 20260507044656 | 70 | 4 | 2.6 | 9.6 | 0.00 | 0.00 | 0.00 | 85 | 1011.0 |
| 20260507044556 | 70 | 0 | 3.5 | 9.6 | 0.00 | 0.00 | 0.00 | 85 | 1011.0 |
| 20260507044457 | 70 | 0 | 4.3 | 9.6 | 0.00 | 0.00 | 0.00 | 85 | 1011.0 |
| 20260507044356 | 70 | 0 | 4.3 | 9.6 | 0.00 | 0.00 | 0.00 | 85 | 1010.9 |
| 20260507044256 | 70 | 0 | 4.3 | 12.2 | 0.00 | 0.00 | 0.00 | 85 | 1010.8 |
| 20260507044156 | 70 | 0 | 5.2 | 12.2 | 0.00 | 0.00 | 0.00 | 85 | 1010.8 |
| 20260507044057 | 70 | 0 | 5.2 | 12.2 | 0.00 | 0.00 | 0.00 | 85 | 1010.8 |
| 20260507043958 | 70 | 0 | 5.2 | 12.2 | 0.00 | 0.00 | 0.00 | 85 | 1010.8 |
| 20260507043856 | 70 | 4 | 5.2 | 12.2 | 0.00 | 0.00 | 0.00 | 85 | 1010.7 |
| 20260507043756 | 71 | 3 | 5.2 | 12.2 | 0.00 | 0.00 | 0.00 | 85 | 1010.6 |
| 20260507043657 | 71 | 8 | 5.2 | 12.2 | 0.00 | 0.00 | 0.00 | 85 | 1010.6 |
| 20260507043557 | 71 | 6 | 5.2 | 12.2 | 0.00 | 0.00 | 0.00 | 85 | 1010.6 |
| 20260507043456 | 71 | 0 | 7.0 | 12.2 | 0.00 | 0.00 | 0.00 | 85 | 1010.7 |
| 20260507043357 | 71 | 0 | 7.0 | 12.2 | 0.00 | 0.00 | 0.00 | 85 | 1010.6 |
| 20260507043256 | 71 | 0 | 4.3 | 10.4 | 0.00 | 0.00 | 0.00 | 85 | 1010.7 |
| 20260507043155 | 71 | 0 | 4.3 | 10.4 | 0.00 | 0.00 | 0.00 | 85 | 1010.8 |
| 20260507043057 | 71 | 0 | 5.2 | 10.4 | 0.00 | 0.00 | 0.00 | 85 | 1010.9 |
| 20260507042956 | 71 | 68 | 5.2 | 10.4 | 0.00 | 0.00 | 0.00 | 85 | 1010.8 |
| 20260507042856 | 71 | 1 | 5.2 | 10.4 | 0.00 | 0.00 | 0.00 | 85 | 1011.0 |
| 20260507042756 | 71 | 0 | 6.1 | 10.4 | 0.00 | 0.00 | 0.00 | 85 | 1010.9 |
| 20260507042658 | 71 | 0 | 6.1 | 10.4 | 0.00 | 0.00 | 0.00 | 85 | 1010.9 |
| 20260507042556 | 71 | 1 | 5.2 | 10.4 | 0.00 | 0.00 | 0.00 | 85 | 1010.9 |
| 20260507042458 | 71 | 1 | 4.3 | 8.7 | 0.00 | 0.00 | 0.00 | 85 | 1010.9 |
| 20260507042357 | 71 | 0 | 3.5 | 8.7 | 0.00 | 0.00 | 0.00 | 85 | 1011.0 |
| 20260507042255 | 71 | 0 | 3.5 | 8.7 | 0.00 | 0.00 | 0.00 | 85 | 1011.0 |
| 20260507042156 | 71 | 0 | 2.6 | 8.7 | 0.00 | 0.00 | 0.00 | 85 | 1011.1 |
| 20260507042053 | 71 | 0 | 3.5 | 9.6 | 0.00 | 0.00 | 0.00 | 85 | 1011.1 |
| 20260507041952 | 71 | 0 | 4.3 | 9.6 | 0.00 | 0.00 | 0.00 | 85 | 1011.0 |
| 20260507041850 | 71 | 0 | 4.3 | 9.6 | 0.00 | 0.00 | 0.00 | 85 | 1011.0 |
| 20260507041749 | 71 | 0 | 4.3 | 9.6 | 0.00 | 0.00 | 0.00 | 85 | 1011.0 |
| 20260507041647 | 71 | 0 | 3.5 | 10.4 | 0.00 | 0.00 | 0.00 | 85 | 1011.0 |
| 20260507041546 | 71 | 1 | 4.3 | 10.4 | 0.00 | 0.00 | 0.00 | 85 | 1010.9 |
| 20260507041446 | 71 | 0 | 5.2 | 10.4 | 0.00 | 0.00 | 0.00 | 85 | 1011.0 |
| 20260507041345 | 71 | 0 | 5.2 | 10.4 | 0.00 | 0.00 | 0.00 | 85 | 1011.0 |
| 20260507041242 | 71 | 0 | 6.1 | 10.4 | 0.00 | 0.00 | 0.00 | 85 | 1011.0 |
| 20260507041141 | 71 | 0 | 5.2 | 10.4 | 0.00 | 0.00 | 0.00 | 85 | 1011.0 |
| 20260507041040 | 71 | 0 | 5.2 | 10.4 | 0.00 | 0.00 | 0.00 | 85 | 1011.0 |
| 20260507040939 | 71 | 0 | 6.1 | 10.4 | 0.00 | 0.00 | 0.00 | 85 | 1011.0 |
| 20260507040836 | 71 | 0 | 6.1 | 10.4 | 0.00 | 0.00 | 0.00 | 85 | 1011.0 |
| 20260507040737 | 71 | 0 | 5.2 | 10.4 | 0.00 | 0.00 | 0.00 | 85 | 1011.0 |
| 20260507040635 | 71 | 0 | 5.2 | 10.4 | 0.00 | 0.00 | 0.00 | 85 | 1011.1 |
| 20260507040531 | 71 | 0 | 6.1 | 10.4 | 0.00 | 0.00 | 0.00 | 85 | 1011.1 |
| 20260507040433 | 71 | 0 | 6.1 | 10.4 | 0.00 | 0.00 | 0.00 | 85 | 1011.0 |
| 20260507040333 | 71 | 0 | 6.1 | 10.4 | 0.00 | 0.00 | 0.00 | 85 | 1011.0 |
| 20260507040233 | 71 | 0 | 6.1 | 12.2 | 0.00 | 0.00 | 0.00 | 85 | 1011.0 |
| 20260507040130 | 71 | 0 | 7.0 | 12.2 | 0.00 | 0.00 | 0.00 | 85 | 1011.0 |
| 20260507040032 | 71 | 0 | 6.1 | 12.2 | 0.00 | 0.00 | 0.00 | 85 | 1011.0 |
| 20260507035932 | 71 | 0 | 5.2 | 12.2 | 0.00 | 0.00 | 0.00 | 85 | 1011.0 |
| 20260507035830 | 71 | 0 | 5.2 | 12.2 | 0.00 | 0.00 | 0.00 | 85 | 1011.0 |
| 20260507035731 | 71 | 0 | 4.3 | 12.2 | 0.00 | 0.00 | 0.00 | 85 | 1011.0 |
| 20260507035631 | 71 | 0 | 3.5 | 12.2 | 0.00 | 0.00 | 0.00 | 85 | 1010.9 |
| 20260507035532 | 71 | 0 | 3.5 | 12.2 | 0.00 | 0.00 | 0.00 | 85 | 1010.9 |
| 20260507035432 | 71 | 0 | 5.2 | 12.2 | 0.00 | 0.00 | 0.00 | 85 | 1010.9 |
| 20260507035330 | 72 | 0 | 6.1 | 12.2 | 0.00 | 0.00 | 0.00 | 85 | 1010.8 |
| 20260507035232 | 71 | 0 | 4.3 | 11.3 | 0.00 | 0.00 | 0.00 | 86 | 1010.9 |
| 20260507035131 | 72 | 0 | 4.3 | 11.3 | 0.00 | 0.00 | 0.00 | 86 | 1010.8 |
| 20260507035031 | 72 | 0 | 6.1 | 11.3 | 0.00 | 0.00 | 0.00 | 86 | 1010.8 |
| 20260507034932 | 72 | 0 | 6.1 | 11.3 | 0.00 | 0.00 | 0.00 | 86 | 1010.8 |
| 20260507034831 | 72 | 0 | 5.2 | 11.3 | 0.00 | 0.00 | 0.00 | 86 | 1010.8 |
| 20260507034730 | 72 | 3 | 4.3 | 11.3 | 0.00 | 0.00 | 0.00 | 86 | 1010.8 |
| 20260507034632 | 72 | 0 | 5.2 | 11.3 | 0.00 | 0.00 | 0.00 | 86 | 1010.8 |
| 20260507034531 | 72 | 0 | 6.1 | 11.3 | 0.00 | 0.00 | 0.00 | 86 | 1010.7 |
| 20260507034431 | 72 | 0 | 7.0 | 11.3 | 0.00 | 0.00 | 0.00 | 86 | 1010.8 |
| 20260507034328 | 72 | 3 | 7.0 | 11.3 | 0.00 | 0.00 | 0.00 | 86 | 1010.7 |
| 20260507034224 | 72 | 0 | 6.1 | 11.3 | 0.00 | 0.00 | 0.00 | 86 | 1010.6 |
| 20260507034123 | 72 | 0 | 6.1 | 10.4 | 0.00 | 0.00 | 0.00 | 86 | 1010.7 |
| 20260507034020 | 72 | 0 | 6.1 | 10.4 | 0.00 | 0.00 | 0.00 | 86 | 1010.6 |
| 20260507033920 | 72 | 0 | 4.3 | 10.4 | 0.00 | 0.00 | 0.00 | 86 | 1010.6 |
| 20260507033814 | 72 | 0 | 5.2 | 10.4 | 0.00 | 0.00 | 0.00 | 86 | 1010.6 |
| 20260507033715 | 72 | 0 | 6.1 | 10.4 | 0.00 | 0.00 | 0.00 | 86 | 1010.6 |
| 20260507033613 | 72 | 0 | 6.1 | 10.4 | 0.00 | 0.00 | 0.00 | 86 | 1010.5 |
| 20260507033511 | 72 | 0 | 6.1 | 10.4 | 0.00 | 0.00 | 0.00 | 86 | 1010.5 |
| 20260507033406 | 72 | 0 | 5.2 | 10.4 | 0.00 | 0.00 | 0.00 | 86 | 1010.4 |
| 20260507033305 | 72 | 0 | 4.3 | 9.6 | 0.00 | 0.00 | 0.00 | 86 | 1010.3 |
| 20260507033202 | 72 | 0 | 5.2 | 9.6 | 0.00 | 0.00 | 0.00 | 86 | 1010.4 |
| 20260507033102 | 72 | 1 | 5.2 | 9.6 | 0.00 | 0.00 | 0.00 | 86 | 1010.4 |
| 20260507033002 | 72 | 0 | 5.2 | 9.6 | 0.00 | 0.00 | 0.00 | 86 | 1010.3 |
| 20260507032903 | 72 | 0 | 5.2 | 9.6 | 0.00 | 0.00 | 0.00 | 86 | 1010.3 |
| 20260507032802 | 72 | 0 | 4.3 | 9.6 | 0.00 | 0.00 | 0.00 | 86 | 1010.3 |
| 20260507032702 | 72 | 0 | 4.3 | 8.7 | 0.00 | 0.00 | 0.00 | 86 | 1010.3 |
| 20260507032604 | 72 | 0 | 4.3 | 8.7 | 0.00 | 0.00 | 0.00 | 86 | 1010.3 |
| 20260507032504 | 72 | 0 | 3.5 | 8.7 | 0.00 | 0.00 | 0.00 | 86 | 1010.3 |
| 20260507032402 | 72 | 0 | 3.5 | 8.7 | 0.00 | 0.00 | 0.00 | 87 | 1010.3 |
| 20260507032305 | 72 | 0 | 4.3 | 9.6 | 0.00 | 0.00 | 0.00 | 86 | 1010.1 |
| 20260507032203 | 72 | 0 | 5.2 | 9.6 | 0.00 | 0.00 | 0.00 | 87 | 1010.2 |
| 20260507032102 | 72 | 0 | 4.3 | 9.6 | 0.00 | 0.00 | 0.00 | 87 | 1010.1 |
| 20260507032003 | 72 | 0 | 4.3 | 9.6 | 0.00 | 0.00 | 0.00 | 87 | 1010.2 |
| 20260507031903 | 72 | 0 | 3.5 | 9.6 | 0.00 | 0.00 | 0.00 | 87 | 1010.2 |
| 20260507031802 | 72 | 0 | 3.5 | 10.4 | 0.00 | 0.00 | 0.00 | 87 | 1010.2 |
| 20260507031702 | 72 | 0 | 3.5 | 10.4 | 0.00 | 0.00 | 0.00 | 87 | 1010.1 |
| 20260507031603 | 72 | 0 | 5.2 | 10.4 | 0.00 | 0.00 | 0.00 | 87 | 1010.0 |
| 20260507031503 | 72 | 0 | 5.2 | 10.4 | 0.00 | 0.00 | 0.00 | 87 | 1010.0 |
| 20260507031404 | 72 | 0 | 5.2 | 10.4 | 0.00 | 0.00 | 0.00 | 87 | 1010.0 |
| 20260507031304 | 72 | 0 | 4.3 | 10.4 | 0.00 | 0.00 | 0.00 | 87 | 1010.1 |
| 20260507031203 | 72 | 0 | 4.3 | 10.4 | 0.00 | 0.00 | 0.00 | 87 | 1010.0 |
| 20260507031102 | 72 | 0 | 5.2 | 10.4 | 0.00 | 0.00 | 0.00 | 87 | 1009.9 |
| 20260507031002 | 72 | 0 | 6.1 | 10.4 | 0.00 | 0.00 | 0.00 | 87 | 1009.9 |
| 20260507030903 | 72 | 0 | 7.0 | 10.4 | 0.00 | 0.00 | 0.00 | 87 | 1009.9 |
| 20260507030802 | 72 | 0 | 6.1 | 10.4 | 0.00 | 0.00 | 0.00 | 87 | 1009.9 |
| 20260507030702 | 73 | 0 | 5.2 | 10.4 | 0.00 | 0.00 | 0.00 | 87 | 1009.9 |
| 20260507030604 | 73 | 0 | 5.2 | 10.4 | 0.00 | 0.00 | 0.00 | 87 | 1009.8 |
| 20260507030503 | 73 | 0 | 6.1 | 9.6 | 0.00 | 0.00 | 0.00 | 87 | 1009.8 |
| 20260507030402 | 73 | 0 | 7.0 | 9.6 | 0.00 | 0.00 | 0.00 | 88 | 1009.8 |
| 20260507030302 | 73 | 0 | 5.2 | 9.6 | 0.00 | 0.00 | 0.00 | 88 | 1009.8 |
| 20260507030204 | 73 | 0 | 4.3 | 8.7 | 0.00 | 0.00 | 0.00 | 88 | 1009.8 |
| 20260507030003 | 73 | 0 | 5.2 | 8.7 | 0.00 | 0.00 | 0.00 | 88 | 1009.8 |
| 20260507025903 | 73 | 0 | 4.3 | 8.7 | 0.00 | 0.00 | 0.00 | 88 | 1009.8 |
| 20260507025802 | 73 | 0 | 4.3 | 8.7 | 0.00 | 0.00 | 0.00 | 88 | 1009.7 |
| 20260507025702 | 73 | 0 | 5.2 | 8.7 | 0.00 | 0.00 | 0.00 | 88 | 1009.7 |
| 20260507025603 | 73 | 0 | 5.2 | 8.7 | 0.00 | 0.00 | 0.00 | 88 | 1009.7 |
| 20260507025504 | 73 | 0 | 5.2 | 8.7 | 0.00 | 0.00 | 0.00 | 88 | 1009.7 |
| 20260507025402 | 73 | 0 | 4.3 | 8.7 | 0.00 | 0.00 | 0.00 | 88 | 1009.6 |
| 20260507025306 | 73 | 0 | 5.2 | 8.7 | 0.00 | 0.00 | 0.00 | 88 | 1009.6 |
| 20260507025203 | 73 | 0 | 7.0 | 8.7 | 0.00 | 0.00 | 0.00 | 88 | 1009.6 |
| 20260507025103 | 73 | 0 | 5.2 | 8.7 | 0.00 | 0.00 | 0.00 | 88 | 1009.6 |
| 20260507025003 | 73 | 0 | 5.2 | 8.7 | 0.00 | 0.00 | 0.00 | 88 | 1009.6 |
| 20260507024904 | 73 | 0 | 5.2 | 8.7 | 0.00 | 0.00 | 0.00 | 88 | 1009.6 |
| 20260507024803 | 73 | 0 | 5.2 | 8.7 | 0.00 | 0.00 | 0.00 | 88 | 1009.4 |
| 20260507024702 | 73 | 0 | 4.3 | 7.8 | 0.00 | 0.00 | 0.00 | 89 | 1009.5 |
| 20260507024602 | 73 | 0 | 4.3 | 7.8 | 0.00 | 0.00 | 0.00 | 89 | 1009.4 |
| 20260507024503 | 73 | 0 | 4.3 | 7.8 | 0.00 | 0.00 | 0.00 | 89 | 1009.3 |
| 20260507024403 | 73 | 0 | 4.3 | 7.8 | 0.00 | 0.00 | 0.00 | 89 | 1009.3 |
| 20260507024302 | 73 | 0 | 4.3 | 8.7 | 0.00 | 0.00 | 0.00 | 89 | 1009.3 |
| 20260507024203 | 73 | 0 | 4.3 | 8.7 | 0.00 | 0.00 | 0.00 | 89 | 1009.2 |
| 20260507024103 | 73 | 0 | 5.2 | 8.7 | 0.00 | 0.00 | 0.00 | 89 | 1009.3 |
| 20260507024002 | 74 | 0 | 5.2 | 8.7 | 0.00 | 0.00 | 0.00 | 89 | 1009.2 |
| 20260507023903 | 74 | 0 | 4.3 | 8.7 | 0.00 | 0.00 | 0.00 | 89 | 1009.2 |
| 20260507023802 | 74 | 0 | 3.5 | 8.7 | 0.00 | 0.00 | 0.00 | 89 | 1009.1 |
| 20260507023703 | 74 | 0 | 3.5 | 8.7 | 0.00 | 0.00 | 0.00 | 89 | 1009.1 |
| 20260507023602 | 74 | 0 | 4.3 | 8.7 | 0.00 | 0.00 | 0.00 | 89 | 1009.1 |
| 20260507023504 | 74 | 0 | 4.3 | 8.7 | 0.00 | 0.00 | 0.00 | 89 | 1009.0 |
| 20260507023402 | 74 | 0 | 5.2 | 8.7 | 0.00 | 0.00 | 0.00 | 89 | 1009.0 |
| 20260507023303 | 74 | 0 | 5.2 | 7.8 | 0.00 | 0.00 | 0.00 | 89 | 1009.0 |
| 20260507023203 | 74 | 0 | 4.3 | 8.7 | 0.00 | 0.00 | 0.00 | 89 | 1009.0 |
| 20260507023103 | 74 | 0 | 4.3 | 8.7 | 0.00 | 0.00 | 0.00 | 89 | 1009.0 |
| 20260507023002 | 74 | 0 | 4.3 | 8.7 | 0.00 | 0.00 | 0.00 | 89 | 1009.0 |
| 20260507022902 | 74 | 0 | 4.3 | 8.7 | 0.00 | 0.00 | 0.00 | 89 | 1008.9 |
| 20260507022802 | 74 | 0 | 4.3 | 8.7 | 0.00 | 0.00 | 0.00 | 89 | 1008.9 |
| 20260507022703 | 74 | 0 | 3.5 | 8.7 | 0.00 | 0.00 | 0.00 | 89 | 1008.9 |
| 20260507022602 | 74 | 0 | 4.3 | 8.7 | 0.00 | 0.00 | 0.00 | 89 | 1008.8 |
| 20260507022502 | 74 | 0 | 4.3 | 8.7 | 0.00 | 0.00 | 0.00 | 89 | 1008.8 |
| 20260507022402 | 74 | 0 | 4.3 | 8.7 | 0.00 | 0.00 | 0.00 | 89 | 1008.8 |
| 20260507022306 | 74 | 0 | 5.2 | 8.7 | 0.00 | 0.00 | 0.00 | 89 | 1008.9 |
| 20260507022202 | 74 | 0 | 5.2 | 8.7 | 0.00 | 0.00 | 0.00 | 89 | 1009.0 |
| 20260507022102 | 74 | 0 | 3.5 | 9.6 | 0.00 | 0.00 | 0.00 | 89 | 1008.9 |
| 20260507022003 | 74 | 305 | 3.5 | 9.6 | 0.00 | 0.00 | 0.00 | 89 | 1008.9 |
| 20260507021902 | 74 | 316 | 3.5 | 9.6 | 0.00 | 0.00 | 0.00 | 89 | 1008.9 |
| 20260507021804 | 74 | 323 | 4.3 | 9.6 | 0.00 | 0.00 | 0.00 | 89 | 1008.9 |
| 20260507021702 | 74 | 293 | 3.5 | 9.6 | 0.00 | 0.00 | 0.00 | 89 | 1008.8 |
| 20260507021601 | 74 | 316 | 2.6 | 9.6 | 0.00 | 0.00 | 0.00 | 89 | 1008.8 |
| 20260507021503 | 74 | 326 | 3.5 | 9.6 | 0.00 | 0.00 | 0.00 | 89 | 1008.8 |
| 20260507021404 | 74 | 329 | 5.2 | 9.6 | 0.00 | 0.00 | 0.00 | 89 | 1008.8 |
| 20260507021302 | 74 | 319 | 5.2 | 9.6 | 0.00 | 0.00 | 0.00 | 89 | 1008.8 |
| 20260507021202 | 74 | 320 | 6.1 | 9.6 | 0.00 | 0.00 | 0.00 | 89 | 1008.8 |
| 20260507021103 | 74 | 310 | 6.1 | 9.6 | 0.00 | 0.00 | 0.00 | 89 | 1008.8 |
| 20260507021002 | 74 | 317 | 6.1 | 9.6 | 0.00 | 0.00 | 0.00 | 89 | 1008.7 |
| 20260507020902 | 74 | 329 | 5.2 | 9.6 | 0.00 | 0.00 | 0.00 | 89 | 1008.7 |
| 20260507020800 | 74 | 317 | 5.2 | 11.3 | 0.00 | 0.00 | 0.00 | 89 | 1008.7 |
| 20260507020659 | 75 | 305 | 5.2 | 11.3 | 0.00 | 0.00 | 0.00 | 89 | 1008.7 |
| 20260507020556 | 75 | 300 | 5.2 | 11.3 | 0.00 | 0.00 | 0.00 | 89 | 1008.7 |
| 20260507020455 | 75 | 310 | 4.3 | 11.3 | 0.00 | 0.00 | 0.00 | 89 | 1008.6 |
| 20260507020355 | 75 | 307 | 4.3 | 11.3 | 0.00 | 0.00 | 0.00 | 89 | 1008.6 |
| 20260507020254 | 75 | 313 | 5.2 | 11.3 | 0.00 | 0.00 | 0.00 | 89 | 1008.6 |
| 20260507020154 | 75 | 327 | 5.2 | 11.3 | 0.00 | 0.00 | 0.00 | 89 | 1008.6 |
| 20260507020055 | 75 | 292 | 5.2 | 11.3 | 0.00 | 0.00 | 0.00 | 89 | 1008.6 |
| 20260507015953 | 75 | 6 | 6.1 | 11.3 | 0.00 | 0.00 | 0.00 | 89 | 1008.5 |
| 20260507015852 | 75 | 0 | 5.2 | 11.3 | 0.00 | 0.00 | 0.00 | 89 | 1008.5 |
| 20260507015753 | 75 | 3 | 4.3 | 10.4 | 0.00 | 0.00 | 0.00 | 89 | 1008.5 |
| 20260507015653 | 75 | 334 | 4.3 | 10.4 | 0.00 | 0.00 | 0.00 | 89 | 1008.5 |
| 20260507015553 | 75 | 326 | 5.2 | 10.4 | 0.00 | 0.00 | 0.00 | 89 | 1008.5 |
| 20260507015453 | 76 | 3 | 4.3 | 10.4 | 0.00 | 0.00 | 0.00 | 89 | 1008.5 |
| 20260507015353 | 76 | 244 | 4.3 | 10.4 | 0.00 | 0.00 | 0.00 | 89 | 1008.5 |
| 20260507015252 | 76 | 4 | 3.5 | 10.4 | 0.00 | 0.00 | 0.00 | 89 | 1008.5 |
| 20260507015154 | 76 | 10 | 3.5 | 10.4 | 0.00 | 0.00 | 0.00 | 89 | 1008.5 |
| 20260507015054 | 76 | 354 | 5.2 | 10.4 | 0.00 | 0.00 | 0.00 | 89 | 1008.4 |
| 20260507014952 | 76 | 353 | 4.3 | 10.4 | 0.00 | 0.00 | 0.00 | 89 | 1008.5 |
| 20260507014854 | 76 | 0 | 3.5 | 8.7 | 0.00 | 0.00 | 0.00 | 89 | 1008.5 |
| 20260507014753 | 76 | 340 | 3.5 | 8.7 | 0.00 | 0.00 | 0.00 | 89 | 1008.5 |
| 20260507014654 | 76 | 314 | 3.5 | 8.7 | 0.00 | 0.00 | 0.00 | 89 | 1008.4 |
| 20260507014553 | 76 | 340 | 3.5 | 9.6 | 0.00 | 0.00 | 0.00 | 89 | 1008.5 |
| 20260507014452 | 76 | 321 | 3.5 | 9.6 | 0.00 | 0.00 | 0.00 | 89 | 1008.4 |
| 20260507014353 | 76 | 316 | 3.5 | 9.6 | 0.00 | 0.00 | 0.00 | 89 | 1008.4 |
| 20260507014252 | 76 | 321 | 4.3 | 9.6 | 0.00 | 0.00 | 0.00 | 89 | 1008.4 |
| 20260507014152 | 76 | 319 | 4.3 | 9.6 | 0.00 | 0.00 | 0.00 | 89 | 1008.4 |
| 20260507014054 | 76 | 341 | 4.3 | 9.6 | 0.00 | 0.00 | 0.00 | 90 | 1008.4 |
| 20260507013953 | 76 | 310 | 4.3 | 9.6 | 0.00 | 0.00 | 0.00 | 90 | 1008.3 |
| 20260507013852 | 76 | 330 | 4.3 | 9.6 | 0.00 | 0.00 | 0.00 | 89 | 1008.4 |
| 20260507013754 | 76 | 338 | 5.2 | 9.6 | 0.00 | 0.00 | 0.00 | 89 | 1008.3 |
| 20260507013654 | 76 | 350 | 6.1 | 9.6 | 0.00 | 0.00 | 0.00 | 90 | 1008.3 |
| 20260507013552 | 76 | 350 | 5.2 | 7.8 | 0.00 | 0.00 | 0.00 | 90 | 1008.3 |
| 20260507013453 | 76 | 344 | 4.3 | 7.8 | 0.00 | 0.00 | 0.00 | 90 | 1008.3 |
| 20260507013353 | 76 | 323 | 4.3 | 7.8 | 0.00 | 0.00 | 0.00 | 90 | 1008.3 |
| 20260507013252 | 76 | 338 | 3.5 | 7.8 | 0.00 | 0.00 | 0.00 | 89 | 1008.3 |
| 20260507013151 | 76 | 329 | 4.3 | 7.8 | 0.00 | 0.00 | 0.00 | 89 | 1008.3 |
| 20260507013052 | 76 | 314 | 5.2 | 7.8 | 0.00 | 0.00 | 0.00 | 89 | 1008.2 |
| 20260507012955 | 76 | 337 | 5.2 | 7.8 | 0.00 | 0.00 | 0.00 | 89 | 1008.2 |
| 20260507012852 | 76 | 327 | 4.3 | 7.8 | 0.00 | 0.00 | 0.00 | 89 | 1008.2 |
| 20260507012752 | 76 | 319 | 3.5 | 7.8 | 0.00 | 0.00 | 0.00 | 89 | 1008.2 |
| 20260507012654 | 76 | 331 | 3.5 | 7.8 | 0.00 | 0.00 | 0.00 | 89 | 1008.2 |
| 20260507012553 | 76 | 319 | 3.5 | 8.7 | 0.00 | 0.00 | 0.00 | 89 | 1008.1 |
| 20260507012452 | 76 | 331 | 3.5 | 11.3 | 0.00 | 0.00 | 0.00 | 89 | 1008.0 |
| 20260507012352 | 76 | 345 | 3.5 | 11.3 | 0.00 | 0.00 | 0.00 | 89 | 1008.0 |
| 20260507012252 | 76 | 330 | 3.5 | 11.3 | 0.00 | 0.00 | 0.00 | 89 | 1008.0 |
| 20260507012151 | 76 | 316 | 3.5 | 11.3 | 0.00 | 0.00 | 0.00 | 89 | 1007.9 |
| 20260507012051 | 77 | 350 | 4.3 | 11.3 | 0.00 | 0.00 | 0.00 | 89 | 1007.9 |
| 20260507011951 | 77 | 319 | 3.5 | 11.3 | 0.00 | 0.00 | 0.00 | 89 | 1007.8 |
| 20260507011852 | 77 | 338 | 3.5 | 11.3 | 0.00 | 0.00 | 0.00 | 88 | 1007.8 |
| 20260507011752 | 77 | 337 | 4.3 | 11.3 | 0.00 | 0.00 | 0.00 | 88 | 1007.8 |
| 20260507011652 | 77 | 336 | 6.1 | 11.3 | 0.00 | 0.00 | 0.00 | 88 | 1007.7 |
| 20260507011553 | 77 | 334 | 5.2 | 11.3 | 0.00 | 0.00 | 0.00 | 88 | 1007.7 |
| 20260507011452 | 78 | 288 | 4.3 | 11.3 | 0.00 | 0.00 | 0.00 | 88 | 1007.7 |
| 20260507011352 | 78 | 310 | 6.1 | 11.3 | 0.00 | 0.00 | 0.00 | 87 | 1007.7 |
| 20260507011252 | 78 | 313 | 7.0 | 11.3 | 0.00 | 0.00 | 0.00 | 87 | 1007.7 |
| 20260507011151 | 78 | 313 | 7.8 | 11.3 | 0.00 | 0.00 | 0.00 | 87 | 1007.7 |
| 20260507011052 | 79 | 309 | 7.0 | 11.3 | 0.00 | 0.00 | 0.00 | 86 | 1007.7 |
| 20260507010951 | 79 | 320 | 7.0 | 11.3 | 0.00 | 0.00 | 0.00 | 85 | 1007.6 |
| 20260507010852 | 80 | 282 | 6.1 | 11.3 | 0.00 | 0.00 | 0.00 | 85 | 1007.7 |
| 20260507010751 | 80 | 283 | 6.1 | 11.3 | 0.00 | 0.00 | 0.00 | 85 | 1007.6 |
| 20260507010651 | 81 | 327 | 6.1 | 11.3 | 0.00 | 0.00 | 0.00 | 85 | 1007.5 |
| 20260507010553 | 82 | 300 | 7.0 | 11.3 | 0.00 | 0.00 | 0.00 | 86 | 1007.5 |
| 20260507010452 | 82 | 312 | 5.2 | 11.3 | 0.00 | 0.00 | 0.00 | 86 | 1007.5 |
| 20260507010351 | 82 | 330 | 1.7 | 6.1 | 0.00 | 0.00 | 0.00 | 86 | 1007.4 |
| 20260507010251 | 82 | 17 | 0.0 | 2.6 | 0.00 | 0.00 | 0.00 | 86 | 1007.3 |
| 20260507010153 | 82 | 114 | 0.0 | 2.6 | 0.00 | 0.00 | 0.00 | 86 | 1007.3 |